GFSSW_850_thetae_000.txt.gz
Theta_e
314 313 313 312 311 311 310 310 310 310 310 311 312 313 314 315 315 315 316 318 317 317 316 317 317 317 319 321 320 321 320 322 324 323 322 318 318 317 317 317 317 317 317 316 316
311 311 311 311 311 310 310 310 310 310 310 309 310 311 313 314 315 315 317 317 317 316 316 318 319 318 320 321 320 321 324 324 321 320 320 320 318 318 316 315 316 316 315 315 314
310 310 310 311 311 312 312 312 312 311 310 310 309 310 311 313 315 318 318 317 317 316 315 318 319 319 320 322 322 321 322 321 320 320 319 318 318 318 317 315 317 317 316 316 315
310 311 311 311 312 312 313 313 313 313 312 311 310 309 310 312 320 319 317 317 318 316 315 317 318 319 320 322 322 320 321 321 321 319 317 317 318 318 318 316 318 318 318 317 316
311 311 311 311 312 312 312 313 313 313 313 312 311 310 309 315 316 316 317 316 317 316 315 316 318 320 322 322 321 319 319 320 320 318 317 317 317 316 317 317 317 317 317 316 316
312 312 312 312 311 312 312 312 312 312 313 312 311 310 310 315 314 315 315 315 316 316 315 314 317 319 319 319 319 319 318 318 318 318 318 316 316 317 317 318 317 317 317 316 315
312 312 312 312 312 312 313 313 313 313 313 313 311 310 311 314 314 314 313 315 315 314 314 315 315 315 319 320 318 317 315 316 317 318 317 317 315 315 317 317 317 317 317 317 316
309 311 312 313 313 313 314 314 314 314 314 314 312 310 312 314 314 314 313 314 315 314 314 314 314 315 317 317 317 316 317 317 319 317 316 315 315 317 318 317 317 317 316 316 316
309 308 307 308 310 313 314 315 315 314 313 313 311 311 315 315 315 314 313 314 315 314 313 313 314 317 317 316 316 316 317 318 319 318 315 314 316 315 317 317 317 316 316 316 315
311 310 309 308 307 307 308 309 312 312 311 310 311 315 314 315 314 314 314 315 314 313 313 313 315 316 315 315 316 318 318 317 316 317 315 314 314 314 316 316 316 316 316 316 316
313 312 312 311 310 309 308 307 309 314 311 314 316 315 316 315 314 314 315 315 313 313 315 315 314 315 315 316 317 317 316 316 317 316 315 315 315 315 316 316 315 316 316 316 316
316 315 314 313 312 311 309 308 311 309 308 309 311 312 315 314 313 313 313 313 313 314 314 315 315 315 315 315 315 315 314 315 315 316 314 314 315 314 313 314 315 315 315 315 315
317 317 317 318 316 312 310 309 307 306 311 309 309 310 310 310 312 312 313 313 313 314 315 315 316 315 315 315 316 315 314 314 315 315 312 312 313 313 313 314 314 315 315 314 314
320 320 320 321 316 311 312 309 307 307 311 312 312 312 311 311 309 311 313 313 313 314 314 314 315 315 314 314 314 314 315 315 315 315 315 314 316 313 314 312 311 313 314 314 313
321 321 321 322 320 316 312 307 309 308 315 315 309 310 312 310 308 308 310 310 311 312 313 314 313 313 314 314 314 315 312 313 314 314 314 315 313 313 313 312 311 311 315 315 314
322 322 321 320 320 319 313 308 310 311 313 313 311 311 312 311 309 307 307 307 308 310 310 311 310 311 313 310 311 310 312 312 312 311 313 312 313 313 313 313 312 311 315 315 314
321 323 320 319 318 319 316 309 312 311 314 315 313 312 312 313 312 308 308 307 309 310 311 312 311 310 310 312 309 310 313 313 315 314 316 312 312 315 315 312 311 311 314 314 314
323 323 321 321 319 318 312 313 314 318 315 313 312 313 313 313 313 311 311 310 308 310 312 313 313 311 308 311 314 310 313 315 314 313 314 309 313 314 313 313 315 315 315 314 314
323 321 320 321 319 317 309 312 319 322 320 319 317 313 313 312 313 313 311 312 312 310 312 312 313 308 308 311 312 312 312 314 314 307 313 314 313 313 313 312 311 310 312 312 312
319 319 319 319 319 314 308 312 315 320 320 317 317 314 314 314 312 312 312 313 313 311 311 312 313 311 306 306 307 309 309 312 313 311 310 312 312 315 315 314 311 310 309 312 312
318 317 318 318 316 310 310 310 315 317 318 319 321 317 314 312 313 313 312 312 313 313 311 312 312 311 306 306 309 306 308 309 310 314 312 313 314 313 313 313 311 310 312 313 313
314 316 316 316 311 309 311 312 314 315 317 315 312 313 313 313 313 314 314 314 310 312 312 311 313 313 311 310 307 309 309 310 311 311 309 312 314 312 311 309 308 309 312 313 313
312 315 313 315 316 313 311 313 313 315 315 316 318 315 316 316 316 313 313 311 312 311 310 310 311 314 311 311 307 307 308 309 310 310 312 313 312 312 312 311 310 309 311 312 312
310 313 308 309 312 313 315 313 313 313 314 314 315 315 315 315 313 315 314 313 313 311 312 312 312 313 314 313 311 310 308 307 309 311 311 311 311 311 311 311 311 312 312 312 312
304 309 310 310 309 311 312 312 314 314 314 315 315 315 316 316 315 315 313 312 311 311 310 312 312 310 311 312 311 311 311 310 310 309 309 310 310 310 311 311 310 311 310 310 310
302 306 307 309 310 311 310 311 312 313 313 314 315 314 314 315 315 316 313 314 315 311 312 311 314 310 311 310 310 310 310 310 310 310 311 310 310 309 309 310 310 310 310 310 310
299 301 301 302 306 308 309 309 310 310 310 311 313 313 314 314 313 313 314 314 313 314 311 309 310 312 314 311 311 312 311 312 312 312 311 311 311 311 311 310 310 311 311 311 311

GFSSW_850_thetae_003.txt.gz
Theta_e
313 312 312 311 311 310 310 310 310 310 310 309 310 311 312 313 314 315 316 317 318 316 316 317 317 317 318 320 321 320 315 315 318 320 320 318 316 317 317 317 317 317 317 317 318
310 310 310 310 311 311 311 312 312 312 311 310 310 310 310 312 313 314 316 317 317 317 316 317 319 318 318 320 320 319 317 319 319 318 317 317 316 317 316 316 315 316 317 317 316
310 310 310 310 310 311 312 312 312 313 313 313 312 310 310 310 312 315 318 317 317 316 316 317 319 318 319 320 320 318 315 317 319 320 318 317 316 317 315 312 316 317 317 316 316
310 310 311 311 311 311 312 312 312 313 313 312 312 312 311 310 310 319 317 317 318 316 315 316 318 319 318 318 321 319 319 319 320 320 319 316 316 317 317 317 317 318 317 317 317
311 311 311 311 311 311 311 311 312 312 312 312 312 311 310 312 313 313 314 316 316 316 316 315 317 319 318 319 318 318 317 319 319 318 318 318 316 315 316 317 317 317 317 317 316
312 312 312 312 312 312 312 312 312 313 313 313 313 311 310 313 314 314 314 314 315 316 316 315 316 317 317 317 317 317 317 316 317 318 317 316 315 316 317 317 317 317 317 317 317
309 309 310 311 312 312 313 313 313 314 314 314 314 311 310 313 314 314 314 313 314 315 315 315 315 316 316 317 318 317 315 312 315 316 314 317 313 313 318 316 317 317 317 317 317
311 311 310 309 309 309 311 313 313 314 315 314 312 310 312 314 314 314 314 314 313 314 314 314 315 315 316 317 316 315 314 314 313 314 316 316 314 313 317 316 316 316 317 317 317
313 312 312 312 311 311 310 309 309 309 311 311 310 310 312 315 315 315 315 314 314 314 314 313 314 314 316 312 312 312 312 313 315 315 313 313 313 312 317 316 316 317 317 317 317
314 314 313 313 312 313 314 313 311 308 307 309 310 315 314 315 315 315 314 313 314 314 313 313 314 311 312 310 312 311 313 313 313 314 313 312 313 313 315 314 314 316 316 316 316
315 314 313 313 313 312 313 314 311 312 313 312 314 313 316 315 315 315 314 314 313 313 312 314 311 312 313 312 312 312 312 311 313 313 314 315 314 314 313 313 312 315 317 317 316
318 317 315 317 317 313 311 311 310 311 309 308 308 311 313 315 315 314 313 313 312 312 312 313 313 312 312 312 312 312 312 312 312 311 311 312 313 313 310 312 314 314 315 316 314
320 319 319 320 318 314 311 310 308 308 310 307 311 310 309 310 312 313 313 313 311 311 311 313 313 313 313 313 313 313 312 313 312 312 311 310 311 311 311 311 314 315 315 315 314
321 321 320 322 319 319 314 310 308 308 306 309 310 311 310 311 309 310 312 313 311 312 311 312 313 312 312 312 312 314 311 312 312 313 313 311 314 311 311 310 310 312 316 314 314
323 321 321 320 319 319 317 310 308 308 309 311 309 310 311 309 307 309 310 311 310 310 310 312 312 311 312 313 311 313 312 312 312 312 311 313 312 314 310 310 311 311 314 316 315
324 321 320 319 319 319 319 310 309 306 308 312 309 309 309 310 308 307 307 308 307 308 308 308 309 311 311 310 310 310 311 311 310 308 312 310 311 311 309 311 311 311 314 317 316
323 323 321 320 319 319 320 311 311 308 309 313 310 310 310 310 310 306 306 305 306 309 307 309 308 308 310 311 308 310 310 310 310 310 314 309 309 313 312 310 310 311 315 317 317
322 323 321 320 320 320 319 312 317 317 311 313 311 310 311 310 311 308 308 307 305 307 309 310 311 308 307 310 310 308 311 311 310 312 313 306 312 313 311 311 313 315 317 316 313
319 320 321 320 318 319 316 314 319 316 320 321 322 322 312 310 309 310 307 307 308 307 310 309 311 309 307 308 310 309 311 311 311 298 308 313 311 311 311 310 309 309 309 312 314
317 317 317 317 318 315 311 319 314 314 319 318 322 320 321 317 315 311 310 309 310 308 310 311 311 310 307 308 308 309 308 311 310 311 311 313 310 313 312 313 312 308 306 311 313
315 317 316 317 316 312 314 314 315 316 316 318 319 321 319 320 319 318 315 313 309 310 309 308 311 311 306 307 309 307 309 309 310 311 314 313 314 312 312 312 311 308 308 310 311
310 314 314 316 311 311 315 313 315 315 316 316 315 317 318 319 320 320 318 315 314 312 315 310 311 312 309 306 306 308 309 309 312 311 309 312 314 312 308 309 306 309 311 312 312
310 312 312 314 315 314 311 314 314 314 315 315 316 315 316 316 317 316 315 315 316 314 314 312 311 314 312 309 305 307 306 308 309 308 312 313 313 312 311 310 307 307 310 311 311
307 310 309 309 311 313 314 314 315 314 313 313 314 314 315 316 315 317 316 315 315 314 313 313 312 313 316 314 311 311 308 307 310 311 312 312 311 311 311 311 311 311 311 311 311
301 304 308 309 309 310 311 311 313 313 313 313 313 313 314 314 314 316 315 315 313 312 311 312 314 312 312 313 312 312 312 312 311 311 312 312 312 310 310 310 310 311 310 310 310
300 303 304 306 308 310 309 310 310 310 310 311 311 311 312 314 314 315 313 314 314 311 312 312 314 315 315 313 312 313 313 313 313 312 312 311 311 311 312 312 311 311 311 311 310
297 298 299 301 301 303 305 307 307 308 308 308 305 305 307 309 305 304 304 306 309 311 312 312 312 314 316 314 314 315 314 314 313 312 311 312 311 311 310 311 311 312 311 311 311

GFSSW_850_thetae_006.txt.gz
Theta_e
312 312 311 311 311 311 311 311 311 311 311 310 310 309 310 311 312 314 315 316 318 317 316 316 317 316 317 319 320 319 312 313 315 319 317 317 315 317 317 317 316 317 317 317 317
310 310 310 310 310 311 311 312 312 312 312 312 312 311 310 310 310 311 313 316 317 317 316 316 318 318 318 319 320 318 312 313 314 317 316 317 316 317 316 315 315 316 317 317 317
309 310 310 310 310 311 311 312 312 312 313 313 312 312 312 311 312 313 317 317 315 316 316 316 318 318 318 319 319 317 314 314 318 319 319 316 315 317 315 312 315 317 318 317 316
311 311 311 311 311 311 311 311 312 312 312 312 312 312 312 311 310 316 314 313 317 316 315 315 317 318 317 316 319 317 317 317 319 320 317 316 317 315 315 317 317 317 317 317 316
312 312 312 312 312 312 311 311 311 312 312 312 312 312 312 311 313 314 314 314 315 317 316 315 316 318 316 317 317 316 316 319 319 318 318 317 315 314 316 317 317 317 316 317 317
309 310 310 311 312 312 312 312 312 312 313 313 313 313 311 310 314 314 314 314 314 315 316 315 315 316 317 317 315 316 316 316 317 317 317 315 315 316 317 316 317 316 317 316 316
311 311 310 310 309 309 310 311 312 313 314 314 314 313 310 314 314 314 314 314 314 313 314 315 315 316 315 315 316 316 314 312 314 315 313 314 313 312 317 316 317 317 317 316 316
313 313 313 313 312 312 312 311 310 310 311 311 312 311 311 315 315 315 314 314 313 313 313 314 314 315 315 315 314 314 313 312 312 311 314 314 314 312 318 316 317 317 317 317 316
312 312 312 313 313 313 314 314 314 312 310 308 307 309 311 314 314 314 314 314 314 313 313 313 314 315 314 311 310 310 310 310 312 312 313 311 313 312 316 316 316 317 318 318 317
317 315 312 312 312 313 313 314 314 314 311 307 309 310 311 314 315 315 315 314 313 313 312 312 313 311 309 309 312 311 310 310 311 312 312 311 312 313 315 314 314 316 317 317 317
321 318 316 315 315 314 312 312 311 313 312 310 312 312 314 315 315 315 314 313 313 313 310 312 310 311 312 310 312 309 309 310 310 311 313 312 312 313 314 313 311 313 314 315 317
322 322 320 319 320 315 315 310 310 311 310 313 311 312 313 314 314 315 314 312 312 311 311 311 311 311 311 309 311 311 311 311 311 310 309 311 311 312 311 313 313 313 314 315 316
324 322 321 321 320 320 315 312 308 308 309 308 311 309 309 309 312 313 313 312 311 310 310 312 312 311 311 310 311 311 311 312 312 310 308 308 311 309 309 311 312 313 314 315 316
325 325 324 322 320 319 318 315 308 308 304 307 309 309 309 310 309 310 311 312 310 310 309 310 311 311 311 311 311 313 310 311 310 310 312 309 313 310 309 310 309 311 314 314 316
324 325 325 324 322 320 319 316 308 309 312 309 310 310 310 308 307 307 310 310 309 310 310 309 311 311 310 312 310 313 310 310 310 310 309 310 311 312 309 309 310 311 314 316 316
323 324 324 322 321 321 320 315 310 307 313 309 308 308 309 309 308 307 308 309 307 307 306 308 309 309 309 309 308 309 311 309 306 307 312 310 310 312 308 310 310 310 313 315 317
320 322 322 322 322 320 320 320 321 315 311 313 310 309 309 309 309 306 306 306 307 308 306 307 307 307 309 310 308 310 310 310 309 308 313 308 308 313 310 311 308 310 313 316 317
316 319 322 322 321 320 320 317 322 319 313 314 316 309 311 309 310 307 306 306 304 306 306 308 311 307 306 308 308 308 309 313 310 312 314 304 310 312 309 310 312 311 312 313 314
315 318 319 320 319 320 318 319 322 319 318 320 319 321 316 310 310 309 306 306 306 305 309 308 310 308 307 308 309 308 309 309 311 296 305 312 310 311 310 309 308 309 310 311 313
314 316 318 316 318 317 314 320 318 315 317 318 320 319 319 316 319 315 313 308 309 306 307 309 311 309 307 307 307 308 308 311 309 313 311 311 311 313 311 311 307 307 308 311 310
311 314 315 314 316 312 315 316 316 316 316 317 318 319 318 319 318 317 316 312 311 309 308 309 310 311 306 306 309 307 309 308 309 312 315 315 314 308 308 308 308 307 312 311 309
308 311 313 315 312 311 314 314 314 314 315 315 315 316 318 317 319 320 321 318 315 312 314 311 312 315 315 308 305 305 309 311 312 313 309 312 313 313 312 311 311 309 313 312 311
307 309 311 313 314 315 312 313 314 314 314 315 315 315 315 316 317 317 316 315 315 315 316 315 315 317 315 313 309 305 307 308 309 309 313 316 315 312 312 310 311 310 311 311 312
304 307 309 310 311 312 312 314 313 313 313 314 314 313 313 313 313 315 314 313 314 314 314 314 315 315 315 313 312 311 308 306 308 310 311 311 311 311 311 311 312 311 311 310 310
300 302 306 307 309 310 310 311 311 311 310 311 312 312 313 313 313 313 313 311 310 311 313 313 315 314 314 315 314 315 314 313 312 312 313 312 311 311 311 312 311 312 312 311 310
297 300 301 302 303 307 308 308 309 309 308 309 310 310 309 309 309 310 307 306 307 306 306 307 313 314 314 313 312 313 313 313 313 312 313 313 313 312 312 312 311 311 312 311 310
295 296 297 299 298 299 303 304 306 304 306 307 306 303 304 304 301 300 301 301 303 304 304 306 308 311 313 310 309 311 313 313 312 312 313 313 312 309 308 308 310 310 304 302 302

GFSSW_850_thetae_009.txt.gz
Theta_e
311 311 310 310 310 310 311 311 312 312 312 312 311 311 310 310 310 311 312 315 317 316 316 316 317 316 317 318 319 318 310 311 313 315 317 316 315 316 316 315 315 317 317 317 317
310 309 309 310 310 310 310 311 311 312 312 312 312 312 312 312 312 313 312 312 316 317 316 316 317 317 317 318 319 317 309 311 311 314 316 316 315 316 316 315 314 316 317 317 317
310 310 310 310 310 310 310 311 311 311 312 312 312 312 312 312 313 314 316 315 314 316 316 315 317 317 317 317 318 315 314 313 316 318 317 316 315 317 314 311 315 316 317 317 317
312 312 312 312 311 311 311 311 311 311 311 312 312 312 312 312 310 316 314 313 313 315 316 315 316 317 316 315 318 316 316 316 317 318 318 315 316 314 315 317 317 317 317 317 317
312 311 312 312 312 312 312 312 312 312 312 312 312 313 313 311 313 314 313 313 314 315 316 315 315 316 315 314 316 315 315 318 319 317 318 317 315 313 315 317 317 317 317 316 316
309 309 309 309 310 310 311 312 312 312 312 313 313 313 313 310 313 314 314 314 314 314 315 315 314 316 316 316 314 315 315 315 315 316 316 315 315 314 316 316 316 316 316 316 316
313 313 313 313 313 313 312 310 310 310 311 312 313 313 313 315 315 315 315 314 314 313 314 314 314 315 314 313 315 315 313 310 311 313 312 314 311 310 316 315 317 317 317 318 317
313 313 313 313 314 314 315 315 315 313 311 310 308 308 311 314 315 315 315 314 313 313 313 313 313 314 314 314 312 311 311 311 311 309 312 313 312 313 315 316 317 318 318 318 318
316 314 312 311 310 312 313 314 315 315 314 313 308 306 309 311 313 314 314 313 313 313 312 312 313 314 314 310 309 308 309 309 309 310 311 310 312 311 315 316 316 317 317 317 317
322 321 317 314 312 311 311 311 313 314 313 310 308 309 308 311 313 314 314 313 313 313 312 312 313 309 307 308 311 310 308 308 309 311 309 311 310 311 316 312 314 315 315 316 316
323 322 321 320 319 316 314 312 312 312 312 312 312 309 312 313 313 314 314 313 312 312 309 311 309 309 311 309 311 309 308 308 308 309 310 310 311 311 312 313 313 312 313 313 314
325 325 324 321 321 319 318 315 310 308 309 312 314 311 311 313 314 314 313 312 312 310 309 310 310 310 309 309 309 309 310 310 311 310 308 309 310 309 309 310 312 313 313 312 313
324 324 324 324 323 320 319 318 311 308 308 311 310 309 310 310 311 312 312 312 310 309 309 311 310 310 309 309 310 309 309 311 311 309 307 307 311 310 308 309 311 312 312 313 314
324 324 324 324 322 321 320 320 310 308 306 307 308 308 308 309 309 309 311 311 310 310 308 309 309 310 309 309 309 311 308 309 309 309 311 309 312 311 310 310 309 310 312 313 315
321 321 323 324 323 322 320 320 311 312 321 312 309 309 310 307 307 307 309 310 308 309 309 307 310 309 309 310 308 311 310 308 308 308 308 309 308 311 309 309 308 308 312 315 316
320 320 323 323 322 321 320 320 315 313 322 312 308 308 309 309 308 307 308 308 307 307 306 307 307 308 308 308 307 308 310 308 305 306 310 309 309 311 308 309 310 309 314 315 314
318 319 321 321 321 321 320 320 320 321 314 315 309 308 307 308 308 306 306 307 307 308 306 306 306 306 308 309 308 309 308 309 308 307 311 307 308 313 311 311 307 310 311 313 313
314 315 316 318 319 320 320 318 321 320 316 314 314 309 313 308 311 307 305 306 304 305 305 307 314 306 305 307 308 307 308 309 309 311 314 304 309 314 309 309 309 311 311 312 314
309 311 315 316 318 319 319 319 319 319 316 318 318 319 316 310 311 309 306 306 307 305 310 307 309 306 305 306 308 307 307 308 310 300 306 311 309 310 308 310 309 307 309 311 313
307 309 313 314 317 318 315 318 317 316 316 317 320 318 319 311 317 311 311 308 308 305 305 309 310 308 306 306 306 307 307 309 307 311 312 310 311 312 311 312 310 307 309 313 314
306 310 311 313 315 313 315 316 315 316 316 317 318 319 317 317 317 319 319 314 309 309 305 310 312 312 310 308 312 306 307 307 308 311 314 315 314 313 311 308 307 307 310 312 312
305 310 310 315 312 312 314 313 314 313 315 316 315 317 317 317 318 318 318 317 317 312 315 313 313 315 314 308 307 306 309 308 310 312 311 313 314 313 313 311 308 310 312 312 311
306 307 308 313 313 313 312 313 313 313 313 314 315 315 314 315 316 314 314 314 315 315 315 312 314 317 315 310 308 311 312 311 312 311 311 312 313 312 312 312 312 310 310 311 312
302 303 307 308 309 311 311 312 312 312 312 313 313 312 313 313 313 314 313 311 311 312 311 312 314 316 317 314 312 313 310 310 311 314 313 312 311 311 311 311 311 311 310 308 304
298 301 303 302 307 307 308 308 308 310 311 312 311 312 312 313 311 311 310 309 306 307 307 311 313 312 312 312 313 313 313 312 314 312 311 311 313 312 311 310 307 306 303 300 299
296 298 299 299 301 303 305 306 307 307 308 309 309 308 308 310 310 309 304 305 306 305 303 305 306 307 309 307 307 309 311 310 309 308 308 309 310 306 297 296 298 296 295 294 295
293 295 296 297 297 299 301 303 304 301 305 305 303 304 306 305 298 298 298 299 301 301 300 302 304 304 304 303 303 304 304 304 305 308 305 306 298 296 295 294 295 293 292 293 293

GFSSW_850_thetae_012.txt.gz
Theta_e
311 310 310 310 310 310 310 311 311 311 312 312 312 312 312 312 312 312 313 312 316 317 316 315 316 316 316 317 318 317 310 310 312 312 314 315 314 315 316 315 315 316 317 317 317
310 310 310 310 310 310 310 310 311 311 311 312 312 312 312 312 313 314 314 313 313 316 316 316 316 317 316 317 318 316 308 310 309 310 314 315 314 317 315 316 314 316 317 317 317
310 310 311 311 311 311 311 311 311 311 311 312 312 312 312 312 312 313 314 314 313 315 316 315 316 317 317 316 318 314 314 311 314 315 316 315 314 317 313 311 316 316 317 317 316
312 312 312 312 312 312 312 312 312 311 311 311 312 312 312 312 310 314 314 313 313 314 315 315 316 316 315 315 317 316 315 315 315 317 316 315 316 313 314 317 317 317 317 316 316
311 310 310 310 311 311 311 312 312 312 312 312 312 312 313 312 313 314 313 313 313 314 314 314 315 315 314 313 314 314 314 317 317 316 317 317 315 313 314 316 317 316 315 315 316
310 310 310 311 311 311 310 310 310 310 311 312 312 312 313 310 313 313 313 313 313 314 315 315 314 315 315 314 313 313 314 313 314 315 315 314 314 313 315 316 316 316 315 316 315
313 313 313 314 314 314 315 315 315 314 312 310 310 309 310 313 314 314 315 314 313 313 314 314 314 314 314 312 313 314 312 308 309 312 310 312 311 309 315 315 315 315 316 317 317
314 314 313 312 312 312 312 314 315 316 316 315 313 310 307 311 312 314 314 314 313 313 313 313 313 313 313 313 311 311 309 311 310 309 311 312 310 311 314 314 314 316 316 316 317
320 320 319 316 314 312 311 310 311 313 314 314 313 310 308 311 310 311 312 313 312 312 312 312 313 313 312 309 309 307 309 308 308 309 309 309 309 310 313 313 314 315 315 315 314
322 323 323 322 320 319 317 315 311 310 312 311 310 309 311 312 311 312 313 312 312 312 312 312 312 309 306 307 310 309 307 306 307 309 307 309 309 309 313 312 310 312 313 313 313
324 325 324 325 322 320 319 319 314 311 312 313 312 311 309 311 310 312 313 312 312 312 309 311 308 309 310 308 310 308 307 306 306 307 308 310 310 309 309 310 310 311 311 312 312
324 324 323 324 324 323 320 320 315 312 311 318 317 312 313 311 313 313 312 312 311 310 307 308 308 309 309 308 308 308 309 309 309 308 307 308 309 309 309 310 311 311 311 311 312
323 323 324 324 323 322 322 320 318 311 309 315 314 310 310 310 310 312 312 311 310 308 307 310 310 309 308 309 309 307 308 309 309 308 306 305 309 307 307 308 310 310 311 311 313
323 323 323 322 322 322 321 321 319 312 311 311 308 308 308 309 309 308 310 311 309 309 307 308 308 309 308 308 308 310 307 308 308 308 309 307 311 308 308 308 307 309 310 313 314
320 320 320 320 322 323 321 320 318 313 322 313 308 309 309 307 307 307 309 310 308 309 308 308 309 309 308 309 307 309 309 308 308 307 307 308 307 311 307 308 307 307 312 312 313
319 319 319 320 322 321 321 320 317 317 322 315 307 308 308 308 307 307 308 308 307 306 305 306 307 307 308 307 306 307 309 307 304 305 309 308 308 310 308 309 310 309 310 314 313
315 315 316 320 320 320 321 319 320 322 316 316 310 307 307 307 308 305 306 307 306 310 307 306 306 306 307 308 307 308 307 308 308 307 311 306 307 311 310 309 309 308 311 313 313
311 311 313 314 317 319 319 318 320 318 317 314 312 309 312 308 310 306 305 306 303 305 304 308 317 307 305 307 308 306 307 309 311 310 316 302 310 314 308 309 311 310 311 312 310
308 308 309 309 313 317 318 320 319 314 315 317 317 318 316 311 311 308 305 305 306 304 312 307 310 305 304 305 306 306 307 307 310 305 307 312 309 310 308 306 307 308 309 311 311
305 306 307 306 312 317 316 319 318 315 316 317 320 318 318 314 311 309 308 307 308 304 306 310 314 310 308 305 305 306 306 309 307 312 312 310 310 312 312 311 309 308 308 310 313
299 305 306 307 312 313 315 315 315 315 316 316 318 319 318 318 316 318 318 314 308 308 305 311 311 312 311 308 310 310 308 306 307 311 316 316 314 312 311 310 307 305 310 312 312
302 305 307 313 311 311 313 313 313 313 313 313 315 315 315 316 316 316 316 317 315 310 313 312 314 315 314 309 307 306 312 310 312 312 308 312 313 311 311 310 311 307 304 302 302
303 305 306 312 309 310 311 312 312 312 312 313 314 313 313 314 315 315 314 314 313 313 315 313 315 316 315 310 308 312 312 312 313 313 315 315 314 310 310 310 299 301 298 297 297
300 300 305 307 308 309 308 308 310 310 311 311 312 311 312 312 311 313 313 311 309 309 309 309 310 313 315 312 311 313 312 311 312 314 314 314 313 312 310 307 299 297 294 294 293
298 299 300 304 303 305 306 307 307 307 308 309 310 310 310 312 311 312 311 310 307 306 306 308 312 311 312 312 308 307 306 306 307 309 310 309 308 305 298 296 296 293 293 292 292
296 296 298 297 298 301 301 304 305 305 305 306 306 305 306 308 308 308 307 305 306 304 303 303 305 304 303 302 302 304 305 305 304 304 304 306 305 295 294 293 293 293 292 291 291
293 295 295 296 296 298 297 300 301 299 302 300 299 301 302 303 298 297 297 297 299 299 300 301 303 302 302 300 299 300 300 302 302 302 300 301 295 292 292 292 292 292 293 290 290

GFSSW_850_thetae_015.txt.gz
Theta_e
311 310 310 310 310 310 310 310 310 311 311 311 312 312 312 312 312 313 313 313 312 315 316 315 315 316 316 316 317 317 312 312 313 311 313 314 313 314 315 316 315 316 317 317 317
310 310 310 310 310 310 310 310 310 310 311 311 311 312 312 312 313 313 314 313 311 315 316 315 315 316 316 316 317 315 311 311 310 309 313 315 314 316 315 316 314 315 317 316 317
311 311 311 312 312 312 312 311 311 311 311 311 311 311 312 312 312 313 314 313 313 313 315 315 315 316 316 316 317 314 315 311 312 313 314 314 313 315 314 313 317 317 317 316 316
312 312 312 312 311 311 312 312 312 312 312 312 312 311 312 312 310 313 315 313 313 313 315 315 315 316 315 314 316 315 315 314 315 316 315 314 315 313 315 316 316 316 316 316 316
310 310 310 310 310 310 310 310 310 310 311 312 312 312 312 312 313 313 313 313 312 313 314 314 315 315 314 313 313 313 313 316 316 316 316 316 315 314 315 315 315 315 315 315 315
311 312 313 313 313 314 314 314 314 314 313 311 310 310 310 310 314 314 313 313 313 313 314 314 314 315 314 313 313 312 313 313 313 314 314 313 314 312 314 314 315 314 315 315 314
314 314 314 314 314 313 313 314 315 316 316 316 315 311 309 311 313 314 314 314 313 313 314 314 314 314 313 311 312 313 311 309 308 311 310 311 311 309 314 314 314 314 315 315 316
316 316 317 316 315 315 313 312 312 312 313 314 315 313 312 313 311 311 312 312 312 313 313 313 313 313 313 312 311 310 309 310 310 308 310 312 311 311 313 312 313 314 314 314 314
320 321 322 322 321 320 319 317 315 312 310 311 313 312 312 314 312 310 309 310 312 311 312 312 312 312 312 309 308 307 310 308 308 308 309 309 310 309 313 311 311 312 312 313 314
323 324 324 324 324 323 321 320 318 313 311 311 311 310 312 313 312 311 312 311 311 311 311 312 312 308 305 308 310 309 307 306 308 309 306 308 309 309 311 310 310 310 310 311 311
324 323 323 323 323 323 323 321 319 314 315 317 314 313 313 311 310 311 312 312 311 311 309 310 308 309 309 307 308 308 306 306 305 306 307 310 309 309 309 309 309 310 310 310 311
323 323 323 323 323 323 322 321 318 315 312 321 322 318 317 312 311 312 311 311 311 309 307 307 308 308 308 307 307 307 308 308 308 307 305 307 309 309 309 310 310 310 310 311 312
324 323 323 323 323 322 321 320 320 316 310 316 315 313 313 312 310 311 311 311 309 307 307 309 309 308 307 308 308 306 307 309 308 306 306 305 308 307 309 308 310 311 311 312 311
324 324 323 322 320 322 321 321 319 315 312 312 308 308 308 308 308 308 310 310 309 309 307 307 307 308 307 308 307 309 307 307 307 308 309 307 310 308 309 309 307 309 311 312 312
323 321 320 319 320 321 321 320 318 315 322 313 307 309 309 307 306 306 309 310 308 308 307 308 308 308 308 308 306 309 308 308 307 307 306 307 307 308 307 308 308 308 312 311 312
320 319 319 319 319 320 320 320 318 320 324 316 307 308 308 307 307 307 308 308 307 306 305 305 306 306 307 306 306 307 308 305 303 305 309 308 308 310 308 309 309 310 312 309 311
315 314 314 315 318 319 319 320 318 323 317 317 311 307 306 306 307 305 307 306 306 309 308 306 305 305 306 308 306 308 307 309 310 308 313 305 306 310 308 308 309 309 310 309 310
312 311 311 312 313 316 318 318 321 317 317 314 313 309 313 309 310 306 305 306 304 305 305 310 318 306 304 307 309 307 308 314 317 313 317 303 313 314 307 309 309 309 308 308 306
308 308 308 309 309 314 317 316 319 316 315 317 316 317 316 311 312 308 305 306 306 304 311 308 310 306 303 304 307 306 308 308 310 308 309 313 311 313 308 307 306 307 303 301 300
306 305 305 306 307 314 315 314 315 314 315 316 318 317 317 315 312 311 310 308 307 304 305 309 315 310 307 305 305 306 306 309 308 313 315 313 311 313 310 307 304 301 300 301 303
303 301 304 305 310 313 312 312 313 314 315 316 317 318 317 317 316 316 317 315 309 308 305 310 311 312 311 307 308 306 306 306 308 313 316 316 315 309 308 303 302 301 299 298 299
300 302 304 309 311 311 311 311 311 311 312 312 313 314 315 314 314 314 315 314 313 308 310 311 314 315 314 310 306 309 310 309 315 316 312 315 315 311 304 302 300 296 295 294 294
303 303 307 310 310 309 310 310 311 310 311 312 311 311 311 312 313 313 312 312 312 312 314 312 314 315 313 310 308 312 310 311 312 311 314 314 314 311 307 299 297 294 293 293 292
299 298 302 308 308 307 306 307 308 308 309 310 310 310 309 310 310 311 310 309 309 310 309 309 311 314 314 313 312 312 310 310 311 314 313 313 311 308 302 297 295 294 293 292 293
298 297 300 298 301 304 304 304 305 305 307 306 307 308 309 310 308 308 308 307 307 307 306 308 310 309 310 310 304 305 305 304 304 305 306 306 305 305 298 294 294 294 293 292 291
296 296 297 297 299 299 302 302 302 303 303 303 303 302 303 305 305 307 304 303 305 303 303 303 306 302 302 303 303 303 301 301 301 302 303 303 304 294 293 292 292 291 293 291 289
293 295 294 294 295 296 296 299 298 298 300 297 297 298 298 301 298 297 297 297 298 300 300 301 301 303 303 300 298 298 298 299 299 299 299 300 295 291 290 292 292 291 291 289 289

GFSSW_850_thetae_018.txt.gz
Theta_e
310 310 310 310 310 310 310 310 310 310 310 311 311 311 312 312 312 313 313 313 313 312 315 316 315 316 315 316 317 317 320 320 319 318 318 317 318 314 316 316 315 317 317 318 317
310 310 310 311 311 311 311 311 311 311 311 311 311 311 311 312 312 312 313 313 312 313 315 316 315 316 317 317 318 319 320 319 318 317 317 317 316 317 316 318 318 316 316 317 317
311 311 312 312 312 312 312 312 312 312 312 312 312 311 311 311 312 312 314 313 313 313 315 315 314 316 317 317 318 319 320 319 317 315 314 316 316 315 317 319 318 318 317 317 316
312 312 312 312 311 311 311 311 311 311 312 312 312 312 312 312 314 313 315 313 313 313 314 314 315 317 318 319 317 319 318 318 318 316 316 316 316 316 316 317 317 317 316 315 315
311 310 310 310 311 312 313 313 313 313 313 312 311 311 311 311 313 313 313 313 312 313 314 315 315 317 318 317 316 317 318 317 317 315 315 316 316 317 316 316 316 316 314 314 314
312 313 314 315 315 315 316 317 317 317 318 318 317 314 311 309 312 313 313 312 312 313 313 314 315 314 315 315 316 315 315 315 315 315 315 315 316 314 315 314 314 314 314 314 314
315 315 315 315 315 315 315 315 315 314 315 316 316 316 315 315 313 312 313 313 313 313 314 314 314 314 314 315 313 313 315 315 315 314 314 313 315 315 315 314 313 314 314 314 314
316 317 318 318 318 318 318 317 316 315 313 312 312 314 315 317 316 313 310 310 312 313 313 314 313 313 313 313 313 314 313 315 316 312 312 314 316 316 315 313 313 314 314 314 314
320 321 322 322 323 323 322 322 321 320 316 311 310 312 313 314 313 313 310 309 311 311 312 312 312 313 312 314 315 315 315 315 315 313 312 314 315 315 313 313 313 313 313 313 313
322 323 323 323 324 323 323 323 322 319 314 312 311 311 312 313 313 312 311 310 311 311 311 312 312 314 313 314 316 317 316 314 314 315 313 313 313 313 312 312 312 312 313 313 313
323 323 323 323 323 323 322 322 321 318 319 320 320 318 318 315 312 311 311 311 311 311 314 312 314 315 316 315 315 314 314 314 314 314 313 313 314 314 313 312 312 313 313 313 313
323 323 323 322 323 323 322 321 319 318 316 320 320 320 319 314 312 312 310 311 311 314 310 312 314 315 314 312 312 313 314 314 314 313 310 313 313 313 313 313 313 313 313 313 312
323 323 324 323 322 321 321 320 319 316 313 316 315 314 314 314 312 312 311 311 312 312 312 315 315 312 311 313 313 314 313 314 315 313 312 311 315 314 315 314 313 311 312 310 310
324 322 324 323 320 321 321 320 318 316 319 318 311 309 308 309 309 308 310 310 311 313 312 313 311 310 311 312 313 314 314 312 312 312 315 311 317 317 316 316 315 313 312 311 310
323 323 323 321 320 320 320 320 319 315 325 316 308 309 309 308 307 307 309 309 312 312 311 314 311 310 312 313 311 314 310 310 310 312 311 314 313 319 313 314 314 313 311 309 308
321 321 321 320 318 319 319 320 319 322 324 319 308 310 309 307 307 307 307 308 307 309 309 311 306 309 311 309 309 308 310 310 310 311 316 317 315 318 316 314 313 311 307 306 305
317 316 315 314 315 318 318 319 321 323 318 319 313 308 308 309 309 307 309 310 312 314 315 311 310 308 307 310 308 309 311 319 322 322 323 311 314 314 315 311 310 308 305 304 303
314 313 313 312 313 315 317 319 321 319 320 316 315 311 318 313 312 309 309 315 309 308 313 317 319 310 308 312 317 311 313 321 324 324 324 316 317 318 316 309 307 305 304 303 302
311 309 309 310 310 311 317 315 315 318 317 318 317 318 318 315 314 313 312 315 313 309 316 318 318 308 306 307 310 312 312 313 317 317 318 316 316 316 313 309 307 306 304 301 300
308 307 307 308 307 310 314 313 313 314 315 317 318 318 318 317 317 314 316 310 310 307 307 312 316 314 311 306 307 309 312 316 312 316 319 316 316 317 312 310 307 305 302 299 298
306 304 305 305 308 312 313 312 312 312 314 316 316 317 316 317 317 316 316 315 313 312 308 313 315 316 313 312 314 311 309 309 310 313 319 319 317 313 311 308 306 302 298 297 296
300 304 303 308 311 311 312 311 310 311 312 313 314 315 315 314 314 313 313 314 312 312 313 313 314 315 314 313 310 310 313 313 315 316 314 315 316 309 306 304 300 297 296 295 294
299 302 308 311 309 311 310 310 310 311 311 311 312 312 312 312 312 311 311 311 311 313 313 312 313 317 316 313 310 313 313 312 313 314 316 317 317 306 301 300 297 296 295 294 293
300 303 305 309 308 308 308 308 309 307 309 310 310 310 310 310 309 309 309 309 309 310 309 309 311 312 312 312 311 313 313 311 311 314 313 314 313 311 310 306 298 296 294 293 291
298 299 301 306 306 308 307 306 306 306 306 306 307 308 307 307 307 308 308 307 307 306 306 308 310 309 309 309 309 310 309 308 307 307 307 306 306 305 305 302 297 293 294 293 290
296 298 298 299 300 303 304 304 304 303 304 304 304 303 303 303 304 305 304 304 303 303 304 305 306 306 307 306 306 307 305 305 305 304 304 303 303 302 295 293 293 292 291 293 291
294 295 296 296 297 300 301 302 300 300 300 298 299 299 300 300 299 297 298 298 299 300 301 302 302 303 303 303 302 303 302 302 302 302 301 301 301 294 293 293 293 292 291 292 291

GFSSW_850_thetae_021.txt.gz
Theta_e
310 310 310 310 310 310 310 310 310 310 310 310 310 311 311 311 312 312 312 313 312 312 315 316 315 316 316 320 318 319 321 321 321 320 319 319 319 318 318 317 318 318 318 318 318
310 310 311 311 311 312 312 312 312 312 312 311 311 311 311 311 312 312 313 313 313 312 313 316 318 317 319 320 320 320 322 321 320 319 319 318 318 318 318 318 318 319 319 319 318
311 311 312 312 312 312 312 312 312 312 312 312 312 312 312 312 314 313 313 313 313 313 314 317 317 317 319 319 321 321 321 320 320 319 318 318 317 317 318 318 318 318 318 318 318
312 312 312 312 311 311 311 312 312 312 312 312 311 311 311 311 317 312 315 314 313 313 313 315 316 318 319 320 319 321 319 319 319 319 318 318 317 317 317 317 317 317 317 317 317
311 311 311 311 312 313 315 316 317 317 318 318 317 315 312 313 314 314 313 313 312 312 314 316 317 317 318 317 318 319 318 318 318 318 318 317 317 317 317 317 317 317 317 317 317
311 312 314 315 315 316 316 317 317 317 317 317 317 317 315 314 314 312 313 313 312 312 314 316 316 316 317 317 317 317 317 317 316 316 316 316 317 316 316 316 316 316 316 316 316
315 315 316 316 316 317 316 316 316 316 315 315 314 314 314 317 318 314 312 313 312 312 316 315 315 315 316 317 317 315 316 317 317 317 317 315 316 317 317 317 316 315 315 315 315
316 317 317 318 319 320 320 320 320 319 319 316 312 311 315 316 316 315 312 310 311 312 314 314 314 315 315 316 316 316 317 317 318 316 315 315 316 317 316 315 315 315 315 315 315
318 319 320 321 322 323 323 323 323 323 321 318 312 311 315 313 313 313 312 310 310 311 313 313 313 315 315 316 317 318 318 318 318 317 315 315 316 316 315 315 315 315 315 315 315
320 321 321 322 322 323 323 323 323 322 318 314 312 312 313 313 312 312 312 310 311 311 313 313 314 315 316 316 318 320 320 319 318 318 317 317 317 317 316 316 315 315 315 315 315
323 323 321 322 323 323 324 323 322 321 319 319 321 318 320 317 316 312 311 310 312 313 315 314 316 317 318 319 318 317 317 318 318 318 318 317 316 316 315 315 315 316 317 316 315
322 321 323 323 323 322 321 320 320 318 318 320 321 320 318 316 314 312 311 312 313 315 314 315 316 317 317 317 315 316 316 317 317 317 316 316 315 315 316 316 316 316 316 315 313
322 322 323 324 323 321 321 320 320 318 316 319 316 315 313 315 317 317 312 313 314 316 315 317 318 316 315 315 316 316 316 317 317 316 314 314 316 319 317 319 317 315 313 312 310
323 322 322 323 321 321 320 320 320 318 321 320 315 310 309 310 313 309 311 312 314 317 318 317 315 314 314 314 315 316 316 314 314 314 318 315 318 318 319 319 316 314 312 310 308
323 323 322 322 322 321 321 320 320 317 325 317 311 309 308 310 309 308 309 310 314 315 314 316 314 313 314 315 314 315 313 312 313 314 316 317 318 319 319 318 315 311 310 307 306
321 321 321 321 320 319 319 319 319 322 325 320 311 312 311 309 309 308 309 309 309 312 313 314 310 311 313 313 312 311 312 313 314 315 320 320 319 319 318 315 313 310 308 307 306
320 319 319 317 320 317 316 319 323 324 319 320 315 311 312 312 311 310 312 312 315 317 318 317 314 311 310 312 311 311 313 319 320 323 325 318 319 319 317 314 312 310 307 306 304
316 315 314 314 316 316 317 320 323 320 320 318 317 316 319 318 317 313 315 317 316 313 316 318 317 314 311 313 316 316 316 319 320 322 323 320 322 320 316 310 309 308 306 304 303
314 313 313 312 313 315 318 320 319 318 317 318 318 319 318 318 316 317 317 317 316 316 316 316 317 316 312 311 311 316 315 315 317 317 320 319 319 319 316 311 309 308 305 303 302
312 309 309 310 309 310 316 316 315 313 315 316 317 316 317 317 317 316 316 314 314 310 311 316 318 316 313 311 311 311 310 316 316 319 319 317 317 317 316 314 310 307 303 301 300
310 307 309 308 308 313 315 313 312 311 315 316 315 316 315 315 315 317 317 316 315 314 311 314 316 315 313 314 314 313 312 313 314 316 319 319 316 313 313 311 308 303 300 298 297
303 307 304 307 310 310 312 310 310 312 312 312 313 314 315 314 314 315 314 313 313 313 313 312 313 315 312 312 312 313 313 313 315 316 314 315 317 312 309 305 303 300 299 297 296
303 306 304 310 311 312 310 310 310 311 311 312 313 313 312 312 313 312 311 311 311 311 312 312 313 313 312 310 311 314 314 314 314 314 316 318 315 308 305 303 300 299 298 297 295
303 304 307 309 309 309 310 309 310 309 310 310 310 310 311 311 310 310 309 309 310 309 309 310 311 312 311 309 310 311 311 311 312 313 313 313 312 309 309 306 302 300 298 296 294
300 302 304 307 308 308 307 306 307 308 307 307 308 309 308 307 307 307 307 307 307 307 306 307 308 308 308 307 307 308 307 307 308 309 310 309 310 308 306 305 300 298 296 295 294
299 300 300 304 305 307 307 307 307 305 305 305 305 305 307 307 306 305 305 305 305 303 303 303 304 304 304 303 303 304 305 306 306 307 306 306 306 305 300 297 297 295 294 293 292
295 296 300 300 302 305 307 307 304 304 303 302 303 303 303 303 302 300 300 301 301 302 302 302 302 302 302 301 300 301 301 301 302 303 303 302 302 296 296 295 294 293 292 292 291

GFSSW_850_thetae_024.txt.gz
Theta_e
310 310 310 310 310 311 311 311 311 311 311 311 311 311 311 311 312 312 313 314 313 312 313 316 316 317 317 320 319 319 319 320 321 321 320 319 318 319 318 318 318 318 318 318 318
310 310 311 311 312 312 312 312 312 312 312 312 312 312 312 313 313 314 314 313 312 312 312 315 318 318 319 320 320 320 321 321 320 319 318 318 318 318 317 318 318 318 318 319 319
310 311 312 312 312 312 311 312 312 312 312 312 312 312 312 312 314 315 313 313 313 313 313 316 318 318 319 320 321 321 320 320 319 319 319 318 317 317 317 316 318 317 317 317 317
312 312 312 311 311 311 312 312 313 314 315 315 315 314 313 311 317 313 314 315 313 312 313 315 317 318 319 319 320 319 320 319 319 319 318 318 318 317 317 317 317 317 317 317 317
312 311 311 311 312 313 315 316 317 318 319 319 318 318 317 315 315 315 314 313 313 313 313 316 316 317 318 318 318 318 319 319 318 318 318 317 318 317 317 317 316 317 317 317 316
311 311 312 314 316 317 317 317 317 317 317 316 315 315 315 316 318 315 312 313 312 312 313 316 317 317 317 317 316 317 317 316 316 316 316 316 316 316 316 316 317 316 317 316 316
314 315 316 316 317 318 318 317 318 318 318 317 316 313 313 317 318 318 312 312 312 312 315 316 316 316 316 317 315 316 315 315 316 317 316 317 314 314 316 316 315 315 316 315 315
316 316 317 318 318 319 319 319 320 321 321 321 318 311 313 315 316 315 315 313 311 312 314 316 316 315 315 316 316 315 314 315 317 316 314 314 314 314 317 316 316 316 315 316 315
316 317 318 318 320 320 321 321 322 322 322 321 316 311 315 313 313 313 312 312 311 311 312 313 313 314 315 315 315 314 315 316 317 318 314 314 314 315 316 316 316 316 316 316 315
317 318 320 320 321 321 322 323 323 322 321 316 312 313 314 313 312 312 312 310 311 312 312 313 314 314 313 313 315 317 317 317 316 317 316 315 314 315 316 316 315 315 315 316 311
319 320 321 321 322 322 323 323 323 323 321 319 321 317 321 318 316 314 313 311 313 314 314 314 314 314 315 315 316 315 316 316 315 316 315 315 314 314 315 315 314 315 316 312 310
321 322 322 322 323 323 321 321 321 319 318 321 321 321 320 319 315 313 312 312 313 314 315 315 315 315 316 316 315 315 315 314 315 316 315 314 313 313 313 314 315 316 313 310 308
323 323 322 322 323 323 321 320 320 319 316 320 319 318 316 316 317 315 313 313 314 315 315 315 317 317 316 315 315 315 315 315 315 314 313 313 313 314 316 317 313 311 309 308 307
323 323 322 322 321 321 321 321 320 319 320 320 315 311 310 313 314 311 312 313 316 317 317 316 315 315 315 315 315 315 314 315 314 313 313 313 316 317 315 315 311 309 308 307 306
323 324 323 323 324 322 322 321 320 317 325 318 311 310 309 311 309 309 309 311 314 315 314 316 313 313 314 314 314 315 311 312 312 312 312 314 314 317 316 313 310 308 307 306 304
323 323 323 322 321 322 320 319 319 321 327 317 312 313 311 310 309 309 310 310 310 312 313 313 310 311 313 312 313 311 311 311 310 311 315 316 317 317 314 311 309 308 307 305 304
323 321 321 321 321 319 318 318 323 325 320 320 315 312 313 313 311 310 311 310 313 315 315 314 313 311 311 311 311 311 312 315 317 315 317 316 316 316 314 310 309 308 306 304 302
320 320 319 318 318 318 318 321 323 322 322 317 315 316 319 318 316 312 314 314 314 314 314 316 317 312 309 312 314 314 315 316 315 314 314 314 316 316 311 309 308 306 304 303 302
318 317 314 314 316 316 320 322 321 320 318 319 319 319 319 318 318 316 316 316 315 315 316 314 314 311 311 311 312 314 314 313 313 308 311 314 314 314 310 308 306 305 303 302 301
316 315 315 312 314 315 316 319 318 316 314 316 319 317 317 316 317 316 315 313 313 310 312 315 317 316 311 311 309 310 310 314 314 319 314 314 313 313 312 309 306 303 301 300 299
313 312 311 312 310 310 314 315 315 313 314 315 314 315 315 315 315 315 315 315 314 310 312 313 316 314 312 313 312 310 311 311 312 313 313 313 311 310 309 307 303 301 300 299 297
310 308 308 308 311 311 313 312 311 312 312 313 313 313 314 315 314 314 315 314 313 312 313 312 313 310 312 310 309 309 311 312 313 311 311 313 313 308 305 303 302 301 300 299 298
305 306 305 310 311 311 311 311 311 311 311 312 312 312 312 312 313 312 312 311 310 311 312 312 310 307 305 306 311 313 312 310 310 311 314 314 312 306 304 302 301 305 305 301 297
304 305 306 310 310 310 310 310 310 310 310 311 311 311 311 311 311 310 310 310 309 310 309 309 309 306 305 305 307 306 307 306 308 310 307 307 307 307 307 307 305 304 302 299 296
303 303 306 307 309 308 309 308 309 310 309 308 310 310 310 310 309 309 309 308 308 307 307 307 306 306 307 306 306 304 304 305 305 305 305 304 304 305 305 303 299 298 296 296 296
301 301 302 304 305 308 308 307 307 306 307 307 308 306 307 308 307 305 305 305 305 304 305 304 299 302 298 302 302 301 301 301 301 301 302 303 303 302 298 297 297 296 295 294 292
299 299 301 303 304 306 307 306 306 306 305 304 304 304 304 303 300 300 300 300 301 302 301 300 298 292 295 298 297 293 297 297 298 298 299 299 298 293 295 294 293 292 292 292 292

GFSSW_850_thetae_027.txt.gz
Theta_e
310 310 310 310 310 311 311 311 311 312 312 312 312 312 312 312 313 313 313 314 313 312 312 315 316 316 317 320 319 318 313 314 318 316 316 317 316 318 318 318 318 318 318 318 317
310 310 310 311 311 312 312 312 312 312 312 312 312 312 312 313 313 314 314 313 312 312 312 314 317 317 318 320 320 317 314 317 317 316 316 317 316 316 316 316 316 316 316 317 317
310 310 311 312 312 312 312 312 312 312 312 313 313 313 312 312 313 315 313 312 312 312 313 316 318 318 318 319 320 319 315 317 319 318 318 317 317 317 316 313 316 316 317 317 317
310 311 312 312 312 311 312 312 314 315 317 317 318 318 317 316 313 313 313 313 313 312 313 314 316 317 317 317 319 318 318 319 318 318 317 317 318 317 317 317 316 316 317 317 316
312 312 312 311 311 312 314 317 318 319 319 318 318 317 317 317 316 315 314 314 313 312 312 314 316 317 316 316 315 315 316 318 318 317 317 316 316 316 316 316 316 316 316 316 316
312 311 311 312 314 317 318 319 318 318 317 317 317 316 314 315 318 317 314 312 312 312 312 315 316 316 316 316 314 315 315 315 315 315 315 314 314 316 316 316 315 315 315 315 315
311 312 315 316 317 318 318 318 318 318 319 319 319 316 313 315 317 318 316 312 312 312 313 315 315 316 315 314 315 315 314 312 313 314 313 315 314 313 316 315 316 316 316 317 314
315 316 317 317 318 318 318 319 319 320 320 321 320 316 314 315 315 316 315 314 313 312 313 315 316 316 315 315 314 314 313 313 313 314 314 314 313 313 316 316 316 316 316 315 312
317 317 317 318 319 319 320 320 320 321 322 321 317 313 315 313 313 313 313 313 312 311 312 314 315 314 314 312 312 312 312 312 314 314 313 312 311 313 316 316 316 315 314 311 311
315 316 318 319 320 320 321 321 322 322 321 318 313 315 314 313 313 312 311 311 311 311 312 312 313 310 309 310 311 313 313 314 314 314 313 313 310 310 315 315 314 314 311 309 308
316 317 318 320 321 321 322 322 322 322 320 320 319 315 318 317 316 314 314 311 312 313 312 313 310 310 310 310 311 313 314 313 312 312 313 312 311 311 314 314 311 311 307 307 306
317 318 320 321 322 323 322 321 322 320 319 320 320 320 320 320 317 314 312 312 313 312 312 311 312 311 311 313 313 313 313 312 312 313 313 311 311 310 311 311 312 308 307 306 305
318 319 322 322 322 323 322 321 320 319 318 320 319 319 318 317 317 314 312 312 312 312 311 312 313 313 313 314 313 313 313 312 313 312 310 311 311 311 312 308 307 307 306 306 304
320 322 322 322 321 322 321 320 320 319 316 318 315 312 313 315 313 312 311 313 313 312 312 312 313 313 313 314 313 314 312 313 313 311 310 311 312 313 312 308 306 305 305 304 303
322 323 323 322 323 322 322 321 320 318 321 314 310 310 309 312 310 308 311 311 312 313 312 315 312 312 313 313 311 312 310 311 311 310 310 310 311 311 309 309 307 304 303 302 302
323 324 323 323 323 322 322 320 319 319 323 314 309 311 309 309 308 308 309 310 310 310 311 311 310 311 311 311 311 309 310 310 309 308 312 312 313 313 311 309 306 304 303 302 301
323 322 324 323 323 322 321 319 321 323 319 315 312 310 311 310 309 309 309 308 310 312 312 312 311 310 310 311 309 309 310 313 312 310 313 312 312 313 311 308 306 303 301 301 301
324 324 323 321 321 321 319 320 322 321 320 315 312 311 316 311 311 309 310 311 309 312 312 314 315 310 309 311 311 310 312 311 310 312 310 311 313 312 305 304 303 302 302 302 301
321 320 320 320 320 319 319 322 322 318 317 318 317 318 317 317 315 312 311 312 311 311 313 313 312 309 310 310 311 312 313 311 312 301 307 311 312 308 305 303 302 301 302 301 300
319 317 316 316 316 317 318 319 318 316 314 315 319 316 316 315 316 313 314 312 311 310 312 314 314 313 309 310 309 311 309 312 310 309 309 312 311 310 307 304 301 300 300 300 299
318 315 314 314 316 314 313 316 315 314 313 314 315 315 313 314 314 314 314 314 311 309 312 313 314 312 311 312 312 309 310 310 311 311 310 309 309 309 308 303 300 299 300 301 301
316 310 310 311 310 310 312 313 312 311 313 313 312 313 314 313 314 312 313 312 312 310 311 311 312 308 311 308 307 308 309 310 310 309 308 311 312 307 303 301 302 301 302 303 302
311 307 309 311 310 311 311 312 311 310 311 311 311 311 311 312 313 311 311 310 311 310 311 311 308 302 304 305 310 311 310 308 308 310 311 312 309 304 302 302 302 303 304 301 298
308 307 306 310 309 309 311 310 311 310 310 310 311 311 311 311 310 310 309 309 309 309 309 309 308 303 304 302 306 306 305 304 307 305 301 303 303 304 303 302 304 304 303 303 299
305 304 306 308 309 309 309 309 310 310 309 309 309 309 309 310 309 309 309 308 308 308 307 306 304 306 306 305 304 304 303 303 303 303 303 303 302 302 301 299 299 298 298 300 297
301 301 304 304 308 308 308 308 307 308 308 308 308 309 308 309 306 304 305 305 305 305 305 304 299 300 296 301 301 301 301 300 300 300 300 300 300 299 297 296 296 295 294 294 292
301 300 303 302 302 307 307 307 306 305 305 305 306 306 304 301 301 300 300 300 301 301 300 300 297 291 293 298 295 293 297 297 298 297 296 296 296 292 294 294 292 292 293 292 292

GFSSW_850_thetae_030.txt.gz
Theta_e
311 310 310 310 310 310 311 311 311 312 312 312 312 312 313 313 313 313 314 314 313 312 312 315 315 316 316 319 318 317 311 313 316 315 315 317 314 317 317 316 316 317 317 316 316
310 310 310 310 311 311 312 312 312 312 312 312 312 312 312 313 313 314 314 313 313 312 312 314 316 316 317 319 319 315 310 313 315 315 316 316 316 316 316 315 316 315 315 315 316
309 310 310 311 312 312 312 312 312 312 313 313 314 315 315 315 315 315 312 312 312 312 313 316 316 317 317 318 319 316 313 314 317 317 316 316 316 317 316 314 315 316 316 316 316
309 310 311 312 312 312 312 312 313 315 317 318 319 319 319 319 313 313 312 312 312 312 313 313 316 317 316 315 318 317 318 317 318 318 317 315 316 316 316 316 316 315 315 316 316
310 311 312 312 311 311 313 315 318 319 319 318 318 317 317 317 319 318 314 313 313 312 312 314 315 316 315 315 315 315 315 316 317 316 315 315 314 314 315 316 316 315 315 314 315
312 312 312 311 312 314 317 319 319 318 318 318 318 317 315 314 318 318 316 314 312 312 312 313 315 315 315 315 314 314 314 314 315 315 314 313 312 314 316 316 316 315 314 314 314
311 311 311 313 316 318 318 318 318 318 318 319 319 319 315 316 317 317 317 313 312 312 312 314 315 315 315 313 315 314 313 311 312 313 312 313 313 312 316 315 315 314 314 314 314
312 312 314 316 317 318 318 318 318 319 319 320 320 318 316 315 315 315 315 315 313 312 312 314 315 315 315 314 313 313 311 311 313 313 314 313 313 312 316 316 315 312 312 312 310
315 316 317 317 318 317 318 318 318 319 320 321 318 316 315 314 314 313 313 313 312 312 313 313 315 314 314 310 309 310 310 311 312 313 313 312 311 312 316 315 313 312 309 308 307
317 317 316 316 318 319 318 319 320 320 321 320 315 316 315 314 313 312 312 312 311 311 312 312 313 309 307 308 310 311 311 311 313 313 312 312 310 309 315 314 310 309 306 306 305
315 315 316 317 319 319 320 321 321 321 320 320 317 315 316 316 315 312 311 312 311 312 309 312 309 308 308 309 309 311 312 312 311 311 311 311 311 310 312 312 308 305 305 304 303
315 316 317 318 321 321 321 321 321 320 319 320 321 320 320 318 318 315 314 312 312 311 311 310 310 310 309 309 310 310 312 311 310 310 312 310 310 309 308 307 306 305 304 302 302
316 317 317 320 321 322 322 321 320 320 318 319 319 319 319 318 317 316 313 311 311 310 310 311 313 311 312 312 312 311 312 312 313 310 309 310 310 311 306 306 305 304 303 302 302
317 317 318 322 321 322 322 321 320 320 316 317 315 314 315 315 314 312 311 312 311 311 310 310 311 312 312 313 313 314 311 311 312 310 312 309 310 310 309 305 303 302 301 301 301
317 318 319 321 322 321 321 320 320 318 321 315 311 310 310 314 310 309 310 312 312 312 311 314 312 312 313 312 311 313 310 310 310 310 309 308 308 308 307 307 303 301 300 300 300
319 320 321 322 322 322 321 321 319 320 323 313 308 309 308 308 308 308 309 310 310 310 310 310 309 309 310 310 310 309 309 308 306 306 310 309 309 311 309 308 303 301 300 300 299
321 321 322 322 322 322 322 319 319 323 317 313 310 309 309 308 307 307 307 307 308 309 310 310 310 310 310 310 309 308 310 312 310 309 313 310 310 311 306 306 304 300 299 299 300
322 322 323 323 323 322 322 319 322 318 318 313 310 309 311 309 309 307 308 309 307 310 310 313 315 309 308 309 310 308 310 311 308 311 311 308 310 309 302 301 301 301 300 300 300
322 323 323 323 323 322 320 321 323 319 318 314 314 315 316 312 312 309 308 309 310 307 313 311 313 308 308 309 310 311 312 310 310 297 306 310 309 306 302 300 300 301 301 302 301
322 320 319 320 320 320 319 320 320 317 314 316 317 316 316 316 315 310 310 310 311 309 311 312 314 312 310 310 308 310 308 311 308 308 309 309 310 310 304 301 300 299 301 301 301
320 317 315 316 316 318 319 317 317 315 313 314 316 316 315 313 314 312 313 312 309 309 311 312 311 311 310 311 311 308 309 309 309 307 305 305 307 306 305 302 300 300 302 301 301
317 314 315 316 313 312 314 314 314 311 313 313 312 312 311 311 312 311 312 312 311 310 312 310 311 307 311 308 307 308 308 308 307 307 306 308 308 306 304 302 301 302 303 302 302
316 310 311 313 315 312 311 313 312 311 312 312 312 311 311 313 314 311 310 309 310 309 310 309 306 300 304 304 308 308 308 306 307 306 303 308 308 303 302 301 302 303 303 302 301
311 307 308 310 310 311 312 313 314 311 310 310 310 310 310 311 310 309 309 308 309 310 310 309 306 305 307 302 306 306 305 304 306 304 303 307 305 304 302 300 300 301 302 303 301
309 307 307 308 310 310 311 311 312 311 310 310 310 310 310 311 310 309 307 308 307 309 307 308 309 306 305 305 305 305 305 303 304 303 303 302 300 301 300 298 298 299 299 300 301
303 303 304 306 309 309 310 309 310 310 309 308 309 309 309 310 308 307 308 307 307 306 306 303 301 301 298 302 302 302 302 301 302 302 301 302 301 299 299 297 296 297 297 297 299
300 300 303 302 305 309 308 307 308 307 306 307 308 306 307 307 304 302 303 303 303 304 303 303 298 295 297 296 294 293 295 298 297 297 297 296 296 292 294 295 295 296 294 293 293

GFSSW_850_thetae_033.txt.gz
Theta_e
311 310 310 310 310 310 310 311 311 311 312 312 312 312 312 313 313 313 313 314 313 312 312 314 315 315 316 318 317 316 309 310 315 314 315 316 314 316 316 316 316 316 316 315 315
311 310 310 310 310 311 311 311 312 312 312 312 312 313 313 314 314 314 314 313 313 312 311 313 315 315 316 318 318 313 307 310 312 314 315 316 315 316 315 316 314 314 315 315 315
310 309 309 310 311 311 312 312 312 312 313 313 315 316 317 318 318 315 312 312 311 311 312 315 315 316 316 318 318 314 311 312 316 316 316 315 315 315 315 313 315 315 315 314 315
309 309 310 311 311 312 312 312 312 314 316 318 319 319 319 319 317 313 312 312 312 312 313 315 316 316 314 315 316 316 316 315 317 316 315 315 316 315 315 315 315 315 313 314 314
309 309 310 311 312 311 311 312 315 318 319 319 319 318 317 316 319 318 313 313 313 312 312 313 314 315 314 314 314 314 314 315 316 316 314 314 314 313 314 315 314 313 313 314 314
309 310 311 312 311 311 313 316 319 319 319 318 318 318 316 314 317 317 316 314 313 312 312 312 314 315 315 314 313 313 313 313 314 315 313 312 312 313 316 316 314 313 313 314 313
310 311 311 311 311 313 316 318 319 318 318 318 319 319 317 317 316 317 317 316 312 312 312 312 315 315 314 313 314 314 312 309 311 312 311 312 312 311 316 314 313 312 313 312 312
311 311 311 311 313 316 318 318 318 317 318 319 320 319 317 316 316 314 315 315 313 312 312 313 314 315 315 314 312 311 310 310 311 312 313 313 313 312 315 313 311 310 309 309 308
312 312 312 313 316 317 318 317 317 318 318 319 319 317 316 315 315 314 314 314 313 313 313 313 315 314 313 308 308 308 309 310 311 312 312 311 312 312 315 313 309 307 306 306 306
315 316 316 316 317 317 318 318 319 319 320 320 318 316 316 314 313 313 312 312 312 312 312 313 313 307 306 306 311 309 310 309 310 312 311 312 310 309 313 311 307 304 303 303 303
316 316 316 316 317 318 319 319 320 320 320 319 317 316 315 314 313 311 311 312 311 311 308 311 307 307 308 308 308 309 309 311 310 310 312 310 309 309 310 305 303 303 302 302 301
315 315 315 316 318 319 320 321 320 319 318 319 320 318 315 316 314 312 311 312 311 310 309 309 308 308 307 307 309 309 311 310 310 309 310 310 310 308 304 303 303 302 301 301 300
315 315 316 317 319 320 320 321 320 320 318 319 319 319 319 318 317 316 313 312 310 309 309 310 312 310 310 310 310 310 310 311 311 310 309 309 309 310 304 303 302 301 301 300 300
316 316 317 318 320 320 320 321 321 320 316 316 315 316 316 316 315 315 313 312 310 310 309 309 310 312 311 312 311 314 309 310 312 310 313 308 311 307 305 303 301 300 300 300 300
316 317 317 317 321 321 320 321 320 318 321 314 312 311 313 315 311 309 310 311 310 310 309 313 312 310 311 311 311 313 309 310 310 309 308 308 309 306 304 305 301 299 299 299 300
318 317 317 318 321 320 321 320 319 319 321 313 309 308 309 308 308 308 310 310 311 310 309 311 309 309 310 308 309 308 308 307 305 306 310 308 309 309 308 307 301 299 299 299 300
320 319 318 318 320 321 320 319 320 323 316 313 309 307 308 307 306 307 307 307 309 312 312 310 310 309 309 309 308 308 309 312 310 309 313 308 309 308 305 302 303 299 299 300 300
320 321 320 319 320 322 320 319 321 321 318 310 309 308 309 307 307 306 306 308 305 308 308 311 315 309 307 309 309 307 309 311 309 309 310 308 311 309 301 300 301 301 300 299 299
321 321 322 321 321 322 318 322 321 319 316 311 311 310 310 309 308 307 306 307 307 305 313 311 313 308 307 308 309 309 310 308 309 294 305 310 308 304 301 299 299 299 299 300 300
323 320 321 322 322 321 320 323 320 318 316 312 314 313 313 315 311 307 306 308 311 306 309 310 313 310 309 308 307 309 307 311 307 307 308 309 309 309 303 301 299 298 299 301 300
320 318 319 321 321 318 322 321 318 317 314 315 315 316 314 315 313 308 311 311 308 308 310 310 311 310 310 310 309 308 309 308 308 306 304 303 306 303 304 302 300 299 302 302 302
317 316 314 318 316 315 321 317 316 313 313 313 312 313 314 312 314 311 311 311 309 310 312 310 309 309 310 307 304 307 308 308 310 308 304 306 309 304 303 302 301 302 304 304 302
316 312 313 314 318 313 312 314 312 311 313 314 314 312 311 311 313 310 309 308 309 309 310 309 307 303 307 306 307 307 306 306 305 302 300 306 307 302 301 301 302 303 303 303 302
314 310 310 310 310 312 313 314 315 312 312 312 313 311 311 312 310 309 309 308 308 309 310 310 306 308 314 306 306 306 305 304 304 305 304 307 307 304 302 301 300 301 302 300 300
313 308 308 308 309 311 313 313 314 313 311 312 311 313 313 312 310 310 308 308 307 308 307 307 305 305 304 304 304 304 304 303 303 304 307 306 306 303 302 300 302 302 298 298 299
305 305 305 308 310 310 311 312 314 314 311 311 313 312 311 312 310 309 308 307 307 305 305 302 304 302 299 304 305 305 304 303 304 304 302 302 303 301 299 300 297 297 297 297 298
301 301 303 305 310 311 311 312 311 312 309 309 310 310 311 310 308 304 306 305 305 304 303 302 301 302 307 297 297 299 298 301 302 300 301 301 301 291 294 294 295 296 295 295 295

GFSSW_850_thetae_036.txt.gz
Theta_e
311 311 310 310 310 310 310 310 311 311 311 312 312 312 312 313 313 313 313 313 313 312 312 313 315 315 315 317 316 315 307 309 313 312 314 315 314 314 315 314 315 315 315 314 314
311 310 310 310 310 310 310 311 311 312 312 312 312 313 314 315 316 317 314 313 313 313 311 313 314 314 315 317 317 311 306 309 311 313 314 315 314 315 315 314 314 314 315 314 314
311 310 309 309 310 310 311 311 312 312 312 313 314 316 318 319 319 314 312 311 312 311 312 313 314 314 314 317 317 313 309 310 314 315 315 314 314 315 314 313 313 314 313 313 313
311 310 309 309 310 311 312 312 312 312 314 316 318 319 319 318 317 313 312 311 311 311 313 315 314 315 313 314 316 315 315 314 316 316 315 314 315 314 314 314 313 313 312 313 314
310 309 309 309 311 311 312 311 312 314 318 319 319 318 318 317 318 318 314 313 312 312 313 313 313 315 312 313 313 315 314 314 315 315 314 313 313 313 314 312 312 312 312 313 312
309 309 309 310 311 311 311 312 314 318 319 319 318 318 318 315 317 317 317 314 312 312 312 312 313 314 314 313 312 312 312 313 314 313 312 312 311 312 311 312 313 312 312 311 310
308 309 309 311 311 311 311 314 317 319 319 318 318 319 318 318 317 317 317 317 314 312 312 312 314 315 314 312 313 313 312 308 310 311 311 311 313 311 312 312 312 312 311 310 309
308 309 310 311 311 311 313 316 318 318 317 317 318 319 318 317 317 316 316 316 313 312 312 312 314 315 314 313 310 310 308 310 310 311 311 312 313 313 312 312 309 309 308 308 308
309 310 310 311 311 312 315 318 318 317 317 318 318 318 317 315 315 315 314 314 314 312 313 314 314 313 313 308 308 306 311 309 309 311 311 311 312 312 311 311 306 305 305 305 304
310 310 311 312 312 315 317 318 318 318 318 319 319 317 317 315 314 313 313 312 313 312 313 313 313 307 306 307 313 310 309 308 309 311 311 311 310 309 308 309 304 303 303 303 303
311 312 314 316 316 316 317 318 318 319 319 318 317 317 315 315 313 312 312 312 312 311 308 310 307 308 308 307 309 308 309 310 309 309 311 310 309 309 304 303 302 301 301 301 302
315 315 315 316 316 317 318 319 319 318 318 319 319 317 316 314 312 311 311 311 311 309 308 307 307 307 307 307 308 309 309 309 308 309 309 310 309 305 303 302 302 301 300 300 301
316 316 316 316 317 317 318 318 320 320 318 319 318 319 318 316 315 314 311 311 309 308 307 309 311 308 308 308 308 307 308 309 311 310 308 308 308 306 302 301 301 300 300 299 300
316 316 316 316 317 317 319 318 320 320 316 316 316 317 317 317 315 316 311 312 309 309 308 308 309 311 309 309 308 311 308 310 310 311 312 308 312 307 304 302 300 299 299 299 300
316 316 316 316 318 318 318 319 321 319 321 314 313 312 314 316 311 309 309 310 309 309 309 313 310 310 311 310 309 312 309 308 309 308 308 308 309 306 303 304 300 298 298 299 299
318 317 317 317 318 318 319 321 319 318 321 315 308 308 311 308 307 308 309 310 311 309 309 311 309 308 310 307 309 305 307 306 304 305 309 308 309 309 306 306 301 299 298 299 300
319 318 317 317 318 319 321 319 319 323 316 313 309 307 310 307 307 307 307 307 310 313 312 310 309 308 308 307 307 307 308 312 311 309 312 306 307 308 306 303 302 299 299 299 299
322 319 318 317 317 319 318 318 323 320 318 309 308 306 310 306 306 306 307 309 307 308 310 312 314 308 307 308 309 307 309 311 310 309 308 307 311 310 302 300 301 302 301 300 299
324 320 319 318 318 319 317 323 321 318 317 309 309 308 308 307 307 306 306 308 308 305 312 310 313 307 306 307 308 308 309 307 307 293 304 309 308 305 300 299 298 298 299 299 299
322 321 319 320 319 319 318 321 319 317 315 310 316 310 309 310 308 305 305 305 308 305 308 310 313 309 307 307 306 308 306 311 307 308 306 309 308 309 304 301 297 297 298 300 299
321 319 320 320 320 319 320 318 319 318 316 313 316 314 310 313 309 306 308 308 307 306 308 308 311 310 309 309 308 308 309 307 308 307 307 304 306 303 304 301 299 298 300 301 301
318 317 318 320 319 318 320 319 319 318 316 313 313 314 312 312 310 308 309 309 309 309 310 309 309 308 310 306 304 306 307 308 311 308 303 305 310 302 302 300 300 300 302 303 302
317 313 315 317 321 319 316 319 316 313 315 313 313 312 311 313 316 311 309 308 308 310 311 310 308 304 308 308 306 307 306 306 305 303 302 306 308 302 301 300 301 302 303 303 303
315 312 310 312 312 315 316 315 316 312 313 314 314 311 312 312 311 312 309 307 308 309 310 310 307 308 312 309 307 308 306 305 305 303 305 309 309 306 303 301 300 302 303 303 301
312 311 311 311 311 313 313 313 316 315 312 313 313 314 315 316 315 312 308 307 307 309 307 309 307 305 304 303 305 306 306 304 305 307 309 309 307 303 304 302 302 303 302 301 299
307 307 308 308 312 312 312 312 312 312 312 312 314 312 314 314 314 310 309 308 309 305 306 303 306 304 303 304 303 305 303 303 304 303 302 303 303 300 303 304 303 303 302 300 298
304 303 304 307 309 311 312 311 311 312 311 312 311 313 313 313 309 307 306 307 307 307 306 305 303 304 309 297 300 307 304 303 302 301 303 305 305 294 296 296 298 299 298 297 297

GFSSW_850_thetae_039.txt.gz
Theta_e
311 310 310 309 309 309 310 310 310 311 311 311 312 312 313 313 313 314 315 313 313 312 312 312 314 315 315 316 315 313 308 309 311 311 313 314 314 314 314 314 315 314 313 313 314
311 311 310 309 309 310 310 310 311 311 312 312 312 313 314 315 317 318 314 313 313 312 312 312 313 314 314 316 316 310 307 309 309 310 313 314 314 315 314 314 313 313 312 312 313
311 311 310 309 309 310 310 311 311 312 312 313 314 315 317 319 318 314 311 311 312 312 311 313 314 313 314 316 315 311 309 308 313 314 315 314 314 314 314 312 313 313 311 312 312
311 311 310 309 309 310 311 311 311 312 312 314 317 319 320 319 317 314 312 311 311 311 312 314 313 313 311 312 315 314 313 313 315 315 314 314 314 314 313 312 312 312 312 312 313
311 311 310 309 309 310 311 311 311 312 313 317 319 319 319 318 318 318 315 312 311 312 313 313 312 313 311 312 313 315 313 314 315 314 314 313 313 312 311 310 310 310 311 312 312
311 310 309 308 309 310 311 311 311 313 317 319 319 318 318 316 317 317 317 316 312 311 312 312 312 313 313 312 312 312 312 312 313 313 312 312 311 311 309 309 310 310 310 310 310
311 310 309 308 309 311 311 311 312 315 318 319 318 318 318 318 317 317 317 316 314 313 312 312 312 314 313 311 312 312 311 309 310 310 310 311 310 310 310 309 310 309 309 308 308
310 309 308 308 309 311 311 311 314 317 319 318 317 318 318 317 317 317 316 316 315 312 312 312 313 314 313 312 310 310 308 312 310 310 311 311 314 308 309 310 309 308 307 307 307
309 308 308 308 310 311 311 312 315 318 318 317 317 318 318 316 315 316 315 314 313 312 312 313 314 313 312 308 309 306 313 309 309 310 310 311 313 307 308 309 306 306 306 305 305
307 307 308 309 310 311 312 314 317 318 318 318 318 317 317 315 314 314 314 313 313 313 313 314 313 307 305 308 314 311 309 308 309 311 310 310 311 306 306 306 304 303 303 303 303
307 308 309 310 311 312 313 316 318 318 318 318 317 317 315 315 313 312 313 312 312 312 309 309 308 310 309 307 309 308 308 310 309 309 311 310 309 309 303 303 302 302 301 301 302
309 310 310 312 314 315 316 317 317 317 318 318 318 316 316 314 312 311 312 312 311 308 307 307 308 308 307 307 308 307 308 308 307 308 309 309 309 307 303 302 302 301 300 301 301
316 315 315 316 316 316 316 317 318 319 318 318 318 318 318 315 314 312 311 311 308 307 306 308 311 306 307 306 308 306 308 307 310 309 308 308 309 306 302 301 301 300 300 300 301
316 317 317 316 316 316 316 316 318 320 315 315 315 317 317 317 314 315 311 311 308 308 306 307 308 309 307 308 306 308 306 307 309 311 313 307 313 308 303 302 300 299 299 299 300
317 317 317 316 316 316 316 316 319 318 316 313 313 313 314 316 312 310 309 310 308 309 310 313 308 309 310 310 307 310 306 307 309 309 308 308 309 308 304 304 301 298 298 299 299
318 317 317 317 316 317 317 319 320 316 320 315 309 308 311 309 308 308 309 310 310 308 309 310 309 308 310 308 308 304 306 306 304 305 310 309 310 309 307 306 301 299 299 299 299
321 318 318 316 316 318 320 319 319 321 314 312 310 307 311 307 307 307 307 308 310 312 311 310 309 307 307 307 306 306 309 312 312 312 314 306 307 309 306 303 303 300 299 299 299
324 320 318 317 316 319 319 318 322 318 316 308 307 307 312 307 307 307 307 308 307 309 310 313 315 308 305 308 309 306 309 313 314 311 309 306 310 310 302 301 301 301 301 300 299
322 322 319 317 317 318 317 321 319 317 315 309 307 308 308 306 306 306 307 308 309 306 315 312 314 306 306 305 307 308 309 307 306 294 306 309 307 306 301 299 298 299 300 299 299
320 320 320 319 317 317 317 320 317 315 311 309 316 310 310 307 307 305 305 305 308 307 308 310 313 308 306 307 306 307 306 311 308 311 310 309 309 310 305 302 297 296 298 299 300
321 318 319 320 318 319 318 317 317 318 315 311 315 314 309 309 308 305 307 306 306 306 308 308 311 310 307 307 308 308 309 307 308 308 309 308 308 303 305 302 299 297 299 300 300
319 319 319 319 317 319 319 316 317 317 317 314 312 314 309 311 309 306 307 307 307 306 309 308 310 309 309 306 304 306 307 307 311 309 303 306 310 303 302 301 300 299 301 301 302
316 317 318 318 320 319 318 318 315 316 318 317 315 313 311 313 314 308 306 307 308 307 310 309 310 308 310 308 305 307 305 305 305 305 304 309 309 302 300 300 300 301 302 302 302
314 313 312 314 314 317 317 318 318 316 316 315 315 312 312 313 313 313 309 307 307 308 310 310 308 312 319 313 308 308 306 305 308 305 308 309 307 305 302 301 299 301 303 303 302
315 312 311 312 314 315 316 315 317 316 313 314 314 315 316 317 316 315 309 307 308 309 308 310 315 307 306 305 307 307 306 305 307 309 311 311 308 304 305 303 303 305 303 302 302
312 309 309 308 312 313 315 314 314 315 313 313 316 315 316 318 318 318 313 308 310 306 307 305 312 307 307 304 305 305 305 305 306 307 308 306 306 303 305 304 303 304 302 302 301
307 308 310 309 310 313 314 313 312 313 312 312 312 312 313 313 310 308 307 307 307 308 307 307 306 309 314 301 304 310 305 304 303 301 306 306 306 296 299 299 302 303 303 303 302

GFSSW_850_thetae_042.txt.gz
Theta_e
311 311 310 310 309 309 309 310 310 311 311 311 312 312 313 313 314 315 315 313 313 312 312 312 314 314 314 315 315 313 317 318 319 318 318 316 317 314 315 315 314 313 313 313 314
311 311 310 310 309 309 310 310 310 311 311 312 312 313 314 316 318 318 315 313 313 312 311 312 313 314 316 317 316 316 317 316 316 317 318 316 316 316 316 316 314 313 312 312 312
311 311 310 310 309 309 310 310 311 311 312 312 313 315 317 319 318 315 312 312 312 312 312 312 313 313 316 316 316 315 316 313 314 315 316 316 316 315 316 317 315 315 311 311 312
311 311 311 310 309 309 310 310 311 312 312 313 315 318 319 319 320 314 311 311 311 311 312 313 313 314 316 316 316 317 315 314 316 315 315 316 315 316 315 314 312 311 311 312 312
310 310 311 310 309 309 309 310 311 311 312 314 318 319 319 319 319 318 314 312 311 312 313 313 313 314 315 315 316 317 316 315 315 315 314 314 315 315 313 311 311 310 311 311 312
310 310 311 310 309 309 309 311 311 311 312 316 319 319 318 319 318 318 317 316 312 311 312 312 312 313 314 315 315 314 314 314 314 313 313 314 314 312 308 308 309 309 310 311 311
310 310 311 310 309 308 309 311 311 311 314 318 319 318 318 319 318 317 317 316 314 311 312 312 312 313 314 314 312 313 315 315 314 312 313 312 313 313 309 308 308 309 309 308 308
309 310 311 310 308 308 309 311 311 312 315 318 318 317 318 318 318 317 317 316 315 313 312 312 313 313 314 311 312 314 314 319 314 312 312 313 320 312 308 309 308 306 305 305 306
310 311 310 309 308 308 309 311 311 313 316 318 318 317 318 316 316 316 316 315 314 312 312 312 314 313 313 316 316 315 321 317 316 312 313 314 318 311 308 309 309 306 304 303 305
310 310 310 308 307 308 310 311 312 315 318 318 317 317 317 315 315 315 314 314 313 312 313 313 313 315 313 317 321 321 318 315 317 315 313 315 316 311 307 308 309 306 304 302 303
308 309 308 307 307 309 310 311 315 317 318 319 318 317 315 315 314 313 314 313 313 313 315 312 316 317 318 317 316 316 316 318 315 312 314 317 317 315 309 307 307 305 304 302 302
307 307 307 307 308 310 311 314 317 316 318 317 317 317 316 314 312 312 313 313 312 315 311 312 316 317 313 313 313 313 316 317 314 311 313 315 315 316 309 309 308 305 303 302 301
314 308 308 310 312 313 313 315 318 318 319 318 318 318 317 315 314 312 312 311 312 311 312 317 316 311 312 311 313 314 315 316 316 312 311 313 316 316 308 305 304 303 302 301 301
317 316 316 317 316 315 316 315 318 318 319 319 317 318 317 316 313 313 311 311 310 313 311 313 311 310 311 313 313 315 312 312 312 314 319 312 322 316 312 308 304 302 301 301 300
317 317 317 317 316 316 315 316 318 317 323 317 314 314 313 316 313 309 310 310 313 311 312 316 311 312 314 314 311 316 311 312 312 314 314 314 317 319 308 310 307 303 302 301 300
318 317 318 318 317 316 316 318 320 320 322 317 311 312 313 311 309 307 309 310 310 311 311 314 309 312 314 309 311 308 310 310 310 313 318 318 317 320 314 312 310 304 302 300 299
320 318 318 317 317 316 317 320 321 323 316 315 314 312 315 311 309 310 310 312 316 317 318 314 313 309 308 312 308 311 315 320 320 318 321 309 314 319 314 308 308 305 302 300 298
322 321 319 317 316 316 319 318 322 320 319 310 309 312 317 311 311 309 311 315 313 314 317 320 321 312 309 315 315 311 317 321 324 320 319 308 315 315 308 304 303 305 302 300 298
319 321 320 318 317 316 317 321 321 319 319 313 310 314 316 310 312 311 313 315 315 312 319 318 319 308 307 307 313 312 313 313 311 304 317 316 313 311 305 304 302 303 301 299 298
317 318 319 319 318 317 318 319 319 318 314 314 318 317 317 313 313 312 312 312 313 312 313 316 319 309 307 308 307 311 311 314 314 321 323 316 315 319 309 308 303 302 301 300 299
313 316 319 319 318 316 318 317 318 317 315 315 318 318 316 313 315 313 315 311 312 311 312 311 314 312 308 310 313 310 311 311 313 316 324 322 317 312 312 310 305 304 302 301 299
311 315 319 319 317 318 317 317 316 317 314 316 315 318 314 312 313 313 314 315 309 310 312 313 313 316 312 308 306 311 313 313 318 314 311 314 319 306 307 307 306 305 302 301 300
311 313 316 318 319 318 317 316 316 317 318 318 317 316 314 314 315 313 312 308 308 311 313 312 315 320 316 310 307 309 309 311 313 313 318 320 319 305 304 304 304 304 302 301 300
309 310 312 313 318 317 315 317 317 315 316 317 318 314 313 317 314 317 313 309 307 310 311 312 315 319 323 319 314 312 311 310 312 317 317 316 317 308 307 306 304 302 302 301 300
311 311 311 314 315 317 315 316 317 318 315 316 317 317 318 318 318 318 316 309 307 308 310 312 317 316 316 313 312 313 313 311 312 314 317 317 314 311 309 307 306 305 303 301 300
311 310 310 311 312 315 316 316 317 317 315 316 318 317 317 318 318 320 318 315 315 308 309 309 316 315 315 312 309 311 312 311 311 312 313 314 313 311 308 307 305 304 302 301 302
306 310 310 309 311 313 314 315 313 314 313 314 314 316 315 316 314 310 310 312 310 311 310 311 314 313 318 315 309 310 311 311 311 311 312 313 313 306 305 305 305 304 302 303 302

GFSSW_850_thetae_045.txt.gz
Theta_e
310 310 310 309 309 309 309 310 310 310 311 311 312 312 313 313 314 315 316 314 313 312 312 312 313 314 316 318 316 315 319 319 320 320 321 319 319 317 317 318 317 315 315 314 314
310 310 310 310 310 309 309 310 310 311 311 312 312 313 314 316 317 318 316 314 313 312 312 314 316 316 317 319 319 319 319 318 319 319 320 319 319 318 318 318 316 315 313 313 313
311 311 311 310 310 309 309 310 310 311 311 312 313 314 316 318 319 317 313 312 312 312 312 312 315 315 317 318 318 318 318 316 317 318 319 319 318 317 318 318 317 317 314 312 312
311 310 311 311 310 310 309 309 310 311 312 312 313 316 318 319 321 315 311 311 312 312 312 313 315 316 317 318 318 318 316 316 317 317 317 318 318 318 317 316 313 313 312 312 311
310 310 310 311 310 310 309 309 310 311 311 312 314 317 319 319 320 319 314 311 311 311 315 316 315 316 318 317 317 318 318 317 317 317 317 316 317 317 316 312 311 311 311 310 310
310 310 310 310 310 310 309 309 310 311 311 312 315 318 319 320 319 318 318 316 311 312 313 314 315 315 316 317 317 317 317 317 316 316 316 316 317 315 316 312 310 310 309 309 310
310 310 310 310 310 310 309 309 310 311 311 312 317 319 318 320 319 318 317 317 315 312 315 313 313 315 316 317 315 316 317 318 317 316 316 315 317 315 314 311 311 310 309 309 310
309 309 309 310 310 310 308 308 310 311 311 313 317 318 319 319 318 318 317 316 315 313 312 312 312 315 316 315 315 317 318 321 320 315 315 315 321 317 312 311 312 311 309 309 309
309 309 309 310 310 309 308 308 309 311 311 314 318 318 319 318 317 317 316 315 315 314 312 312 314 316 315 317 319 319 322 322 320 316 316 316 321 315 311 312 313 312 310 307 306
307 310 310 310 310 309 308 308 310 311 313 316 318 318 318 316 316 316 316 315 314 313 313 314 315 317 317 319 322 322 322 321 321 317 316 317 318 315 312 312 313 312 310 308 306
316 307 309 310 310 308 307 309 312 318 315 318 320 319 316 316 315 314 315 313 314 315 317 315 317 319 319 319 320 320 321 321 321 317 316 318 318 319 314 312 313 312 310 308 305
323 316 307 308 308 308 309 316 317 316 319 319 318 318 316 315 312 313 314 314 314 317 317 316 317 319 319 319 319 318 319 320 321 315 315 318 319 319 318 314 313 313 311 308 304
324 320 314 308 308 310 310 312 312 317 319 318 319 318 317 316 315 314 314 314 315 317 316 319 319 316 316 316 317 318 319 320 320 316 314 316 318 319 318 315 312 311 310 307 305
325 323 317 311 314 314 315 309 313 317 319 317 318 319 317 316 315 314 314 313 312 317 316 317 318 315 315 317 317 319 318 317 317 317 321 317 322 321 321 315 311 309 308 306 304
324 322 318 315 315 315 314 311 317 316 321 319 318 315 315 317 315 311 312 311 316 315 314 318 314 314 316 317 316 318 315 316 316 318 319 320 318 320 319 317 313 309 307 305 304
322 323 319 317 316 317 314 316 318 320 320 319 314 315 315 316 312 309 309 310 313 315 313 316 312 314 316 313 314 314 315 314 315 317 322 320 321 322 321 316 315 309 306 305 303
321 322 319 317 317 317 316 318 320 321 318 317 317 315 317 316 312 312 311 311 315 316 318 316 316 314 313 315 311 314 317 323 323 321 323 317 322 322 320 313 315 309 306 304 303
319 320 320 318 317 318 317 319 321 318 319 315 315 316 319 314 313 312 312 314 314 317 321 321 323 318 313 318 320 315 319 324 328 327 324 311 318 320 315 311 308 309 306 304 302
317 318 319 319 318 317 317 319 320 318 318 318 315 318 319 315 314 313 314 317 317 317 320 322 323 315 314 315 318 316 317 319 318 311 317 318 316 315 309 307 307 308 305 303 302
313 314 317 318 318 317 318 318 319 318 318 319 319 318 321 318 316 316 317 318 318 316 317 320 323 313 310 310 311 315 315 316 317 324 325 322 320 320 311 309 307 307 305 303 301
314 312 315 317 318 316 318 317 318 318 318 319 320 319 318 320 317 316 321 318 317 316 315 318 319 315 310 312 315 312 314 315 317 319 327 325 321 317 317 312 308 307 305 303 301
314 313 312 315 315 317 317 317 316 318 318 319 318 319 320 319 318 318 319 319 314 314 315 317 319 323 316 313 311 315 315 315 319 319 316 319 322 309 313 314 309 307 305 303 302
313 311 310 318 318 318 316 316 316 317 318 319 319 319 319 319 317 318 318 317 314 314 316 315 318 323 321 312 309 311 312 314 315 315 320 322 321 309 308 309 309 308 306 304 302
312 311 310 312 315 317 316 316 316 316 317 317 318 318 318 320 318 320 319 312 311 313 315 315 317 321 326 323 317 314 313 312 314 317 318 320 319 310 309 309 308 308 306 305 302
310 307 310 314 312 314 317 316 317 317 315 316 318 318 319 319 319 319 318 310 309 310 312 316 318 318 319 319 319 316 314 313 313 314 318 319 318 317 311 310 309 307 306 304 303
306 309 308 311 312 314 314 316 316 316 316 316 317 318 318 319 320 321 319 318 314 309 310 311 316 317 318 318 318 318 317 315 313 313 314 316 317 317 315 310 309 307 306 304 303
305 306 306 310 311 312 310 312 315 315 316 316 315 317 317 317 318 316 315 316 316 314 310 310 312 314 319 317 317 313 315 314 315 313 314 315 315 310 311 309 308 307 306 305 304

GFSSW_850_thetae_048.txt.gz
Theta_e
309 309 309 309 309 309 309 309 310 310 311 311 312 312 313 313 314 316 318 315 313 312 312 312 313 314 317 319 315 315 318 318 320 320 320 318 318 317 318 317 317 315 315 315 314
310 310 310 309 309 309 309 309 310 310 311 312 312 313 313 315 316 318 317 315 313 313 312 314 316 315 318 319 319 319 320 319 317 319 319 319 318 318 317 317 315 315 313 313 313
310 310 310 310 310 309 309 309 310 310 311 312 312 313 314 317 319 318 314 312 313 313 312 313 315 315 317 318 318 319 318 316 317 318 319 319 318 318 318 317 316 316 314 313 313
311 310 310 310 310 310 309 309 309 310 311 312 312 313 316 318 321 317 312 311 312 312 312 313 316 316 317 318 318 318 317 316 318 317 318 318 318 318 317 315 315 315 314 312 312
311 310 310 310 310 310 309 309 309 310 311 311 312 314 317 320 320 320 316 311 311 311 315 316 315 316 318 317 318 318 318 317 317 317 317 317 318 317 317 316 314 313 312 312 312
311 310 310 310 310 310 310 309 309 309 311 311 312 315 318 320 319 319 318 318 312 312 313 314 315 316 316 317 317 317 317 317 317 317 317 316 317 316 316 315 313 311 311 311 311
310 310 310 310 310 310 310 309 308 309 310 311 312 316 318 319 319 319 318 318 317 312 315 314 314 315 317 317 316 316 316 316 316 316 316 316 315 314 315 314 312 311 310 310 311
308 308 309 309 309 310 310 309 308 308 310 311 312 317 318 319 319 319 318 317 316 314 313 314 313 316 316 316 316 316 317 319 319 317 315 315 317 317 314 312 311 311 310 309 309
308 309 308 309 309 309 310 309 308 308 309 311 314 317 319 318 318 317 317 316 315 314 313 313 313 316 315 315 317 318 318 319 317 316 314 313 318 314 312 312 312 312 311 310 309
320 313 308 309 309 309 310 309 308 308 310 311 314 316 316 316 317 317 316 315 315 314 313 313 315 315 315 315 318 320 319 319 320 315 315 314 314 313 312 312 313 313 312 310 308
324 323 317 307 309 310 310 308 310 316 312 311 318 317 317 317 315 315 315 314 315 315 316 315 315 316 316 316 317 318 318 318 320 315 316 315 315 315 313 312 313 313 312 310 308
324 324 324 317 308 309 309 309 315 317 317 318 316 317 318 316 313 314 315 314 315 316 316 315 316 316 318 318 318 317 317 317 318 314 314 315 315 316 314 312 312 313 313 310 307
323 324 324 323 313 312 310 309 309 314 319 314 314 316 317 317 315 314 314 314 315 316 316 317 318 317 316 318 318 317 318 317 318 315 314 313 314 315 315 316 313 313 313 311 308
323 324 324 319 316 314 312 307 309 314 317 314 318 319 318 317 315 316 315 315 315 316 316 316 317 316 317 317 316 317 317 317 317 317 317 314 318 318 317 316 313 314 313 310 307
321 323 323 319 319 317 316 311 310 317 317 317 317 318 316 316 314 313 314 313 314 314 316 317 315 314 316 316 316 317 315 316 316 315 316 316 317 318 317 318 313 310 311 309 306
320 321 322 317 319 318 316 313 317 320 316 319 314 315 315 316 312 310 312 311 313 315 314 315 313 314 315 312 314 313 314 315 315 316 317 317 319 319 319 317 316 311 309 308 305
318 319 320 320 318 317 317 317 316 318 315 316 317 316 316 317 313 311 311 311 314 315 316 314 314 314 313 313 312 314 316 320 320 318 319 316 318 319 317 315 314 311 309 307 305
316 317 319 319 319 317 317 318 316 317 316 316 317 317 318 317 314 312 312 312 311 314 317 317 318 315 312 315 316 313 316 319 321 322 319 310 315 316 310 310 312 312 308 306 304
312 316 317 318 318 317 318 317 317 318 317 316 316 318 318 316 315 313 312 314 314 312 316 319 320 314 312 314 316 314 315 317 317 306 312 316 314 314 308 307 308 308 306 305 303
310 312 314 318 317 318 318 316 314 316 317 316 317 318 320 317 315 314 314 315 316 313 314 320 323 314 308 311 312 314 313 315 315 316 319 319 318 317 311 308 306 306 306 304 303
307 312 312 314 317 316 319 316 315 316 316 317 317 317 318 319 315 314 317 317 315 314 314 317 319 312 309 311 314 312 313 314 315 316 318 319 319 315 315 310 306 307 306 304 303
307 313 312 314 318 316 318 317 315 316 317 318 318 317 317 317 317 316 316 318 317 315 315 316 318 314 312 312 311 313 314 314 317 317 315 315 320 309 311 310 307 307 306 304 303
306 311 311 313 318 318 316 317 317 316 317 318 319 318 318 319 318 317 317 316 317 315 315 315 316 318 319 312 309 311 311 314 315 313 318 317 319 307 307 309 308 307 306 304 302
305 310 311 312 312 314 316 315 317 316 316 316 318 318 318 318 318 319 317 314 315 315 315 316 317 318 323 320 314 311 311 312 314 315 315 317 317 310 308 307 307 307 306 304 302
304 308 310 312 311 312 312 313 315 316 315 316 317 318 319 320 319 320 318 311 310 312 314 315 318 316 318 318 316 312 312 311 312 314 316 317 316 315 313 307 307 308 307 305 303
304 306 307 309 310 312 312 313 311 314 315 316 317 317 318 319 319 319 319 317 314 309 311 312 317 316 318 315 317 318 316 311 311 312 314 314 315 314 315 311 308 308 306 305 303
303 304 304 306 309 311 312 312 312 312 313 315 315 316 317 317 317 318 317 316 314 310 310 312 313 313 319 315 316 318 317 317 316 311 312 313 313 311 311 306 308 307 306 305 304

GFSSW_850_thetae_051.txt.gz
Theta_e
309 309 309 309 309 309 309 309 309 310 310 311 312 312 313 313 314 315 316 315 313 312 312 312 313 314 317 318 314 315 310 312 315 317 316 317 316 317 317 317 316 315 316 316 313
310 310 310 309 309 309 309 309 309 310 310 311 312 312 313 314 316 317 316 315 314 313 312 314 316 315 317 318 318 316 311 315 315 315 316 317 317 317 316 316 314 313 313 313 313
310 310 310 310 310 309 309 309 309 310 310 311 312 312 314 315 319 318 313 312 313 313 312 313 315 315 316 316 317 316 313 314 316 317 318 317 317 317 316 314 315 315 313 313 314
311 311 310 310 310 310 309 309 309 309 310 311 312 312 314 316 320 317 312 311 311 312 312 313 315 315 315 316 318 314 316 315 317 316 317 317 317 317 316 315 316 316 314 313 313
311 311 311 310 310 310 310 309 309 309 310 311 311 312 314 317 319 319 318 311 311 311 313 315 315 316 315 316 317 316 316 316 317 316 317 317 317 316 315 315 314 314 313 312 312
311 311 311 310 310 310 310 310 309 309 309 310 311 312 316 318 318 319 318 317 312 312 314 314 315 315 315 315 315 316 316 316 316 316 316 316 316 316 315 315 314 313 312 312 312
308 310 310 310 310 310 309 310 310 309 309 310 311 312 314 315 317 319 318 317 316 312 314 314 315 314 316 316 316 316 314 314 315 316 315 316 313 313 315 314 314 312 311 311 311
308 308 308 309 309 309 309 309 310 309 308 309 311 313 313 316 318 319 319 318 317 314 314 315 313 315 316 316 315 315 314 315 316 314 314 314 314 314 314 314 312 312 311 311 310
320 312 308 308 308 309 309 309 310 309 308 309 311 314 314 316 317 317 318 317 316 315 313 313 313 315 314 312 312 314 314 315 316 314 312 312 313 312 312 313 312 311 311 310 310
324 323 319 308 309 309 309 309 310 309 309 309 311 314 313 316 317 317 316 316 315 314 313 313 314 311 311 310 314 315 315 316 317 314 312 311 311 312 312 312 312 312 311 310 310
322 324 324 321 311 307 309 310 311 315 311 310 313 314 316 315 315 316 316 315 315 314 312 314 311 312 311 311 313 315 316 316 315 314 313 312 312 311 312 311 311 312 311 311 311
319 320 324 323 323 315 308 309 313 315 316 314 315 315 317 316 314 315 315 315 314 313 313 313 313 313 313 312 313 314 314 314 314 313 312 312 312 311 311 311 311 312 312 312 310
318 319 321 323 323 321 315 308 311 316 316 313 309 311 316 315 316 315 314 314 313 313 313 314 315 315 314 315 316 315 315 314 315 314 312 312 312 312 312 312 313 312 312 312 311
320 320 321 322 317 320 321 315 308 312 310 311 313 315 315 316 314 315 315 315 313 313 313 314 315 315 314 315 315 315 314 315 315 316 315 312 317 314 313 312 310 312 311 312 310
318 319 321 319 321 320 321 318 309 315 307 309 315 316 316 315 313 313 315 314 312 313 314 314 314 314 315 314 313 315 314 315 315 314 314 314 313 314 313 315 315 312 311 312 311
316 316 319 320 321 321 320 317 312 318 313 314 314 314 314 315 311 310 312 312 313 313 312 313 313 312 313 311 313 311 313 313 312 313 315 315 315 316 316 316 315 313 311 311 310
313 316 318 319 318 318 318 313 312 315 314 315 315 314 315 315 310 310 309 311 313 314 314 313 313 313 312 312 312 313 313 316 317 315 319 314 314 318 315 313 313 311 309 308 308
310 314 317 317 318 318 317 311 315 314 316 315 315 314 315 314 312 310 310 311 310 312 314 316 315 313 311 313 313 312 314 316 318 318 317 310 315 316 312 313 311 313 314 309 307
308 310 314 316 317 318 318 312 317 315 313 315 315 316 316 315 311 311 309 311 311 311 315 315 315 312 310 313 314 312 315 315 317 301 310 315 313 312 309 308 308 309 308 306 305
306 308 311 315 316 317 318 314 314 314 315 315 318 316 317 315 313 311 311 311 313 312 312 316 320 311 309 312 312 312 311 315 313 314 314 316 315 318 313 310 306 305 305 304 304
305 308 310 311 314 317 319 318 314 314 314 317 317 317 316 315 313 312 313 313 312 311 312 314 319 312 309 311 313 312 313 313 314 312 314 315 318 312 314 311 306 306 306 305 304
305 309 310 312 315 316 318 317 316 315 314 316 317 317 316 315 315 311 313 314 314 312 312 313 317 311 311 309 308 312 313 312 316 314 312 313 320 308 310 310 308 307 306 306 305
305 306 309 312 314 314 316 315 316 316 315 316 318 317 316 317 318 314 312 313 314 313 313 314 316 316 314 311 309 311 312 314 314 310 317 315 320 306 308 309 309 307 307 306 304
304 306 307 308 311 313 315 316 317 316 316 315 317 316 317 318 317 318 315 313 314 314 314 315 315 318 320 319 313 311 310 312 315 316 316 317 318 312 309 308 306 307 307 306 304
303 304 306 310 309 311 311 311 312 315 316 316 317 316 318 319 319 319 317 312 311 313 314 315 317 314 317 315 313 311 311 312 314 315 317 318 317 316 311 307 308 309 307 305 304
302 302 305 306 308 309 310 310 311 310 314 316 317 317 316 318 318 318 317 317 314 309 314 312 316 315 317 314 314 316 312 310 312 313 314 315 316 313 314 314 309 311 308 306 305
301 302 304 304 304 306 308 310 310 310 311 311 312 314 316 316 316 317 317 316 315 311 311 313 314 315 320 314 315 318 317 317 316 312 312 313 314 310 310 309 308 309 308 308 308

GFSSW_850_thetae_054.txt.gz
Theta_e
308 308 308 309 309 309 309 309 309 310 310 311 311 312 312 313 313 314 314 314 313 312 312 312 313 315 315 315 314 315 308 310 315 313 316 316 315 316 316 315 315 316 315 316 319
309 309 309 309 309 309 309 309 309 310 310 311 311 312 313 313 315 315 316 315 314 312 312 313 314 316 316 317 316 314 308 313 314 314 313 315 316 316 316 314 313 314 315 314 318
310 310 310 310 310 309 309 309 309 309 310 310 311 312 313 314 317 317 312 312 313 312 312 314 314 315 316 316 316 314 312 313 315 317 316 315 316 316 314 313 314 314 315 314 315
311 311 310 310 310 310 310 309 309 309 309 310 311 312 313 315 318 316 311 311 311 312 312 313 314 315 314 315 317 312 314 314 316 316 317 315 316 316 315 316 316 315 314 313 314
311 311 311 310 310 310 310 310 309 309 309 309 310 311 313 316 317 319 317 311 311 312 313 314 315 315 313 315 316 314 314 315 316 316 316 317 316 315 315 316 316 315 314 313 313
311 311 311 310 310 310 310 310 310 310 309 309 310 311 313 315 316 319 318 316 311 313 314 314 315 315 315 315 313 315 315 315 315 316 315 315 315 316 315 315 314 314 314 313 312
308 310 310 310 310 310 310 309 309 310 309 309 309 310 311 312 316 318 317 317 316 312 313 314 314 314 315 315 315 315 313 312 313 315 314 315 313 312 315 314 313 313 313 312 312
310 308 307 309 309 309 309 309 309 309 309 309 309 310 310 313 315 316 317 317 317 315 314 314 313 314 316 315 314 314 312 314 314 313 314 313 313 313 314 313 312 312 311 311 311
322 317 310 308 308 308 308 308 309 309 309 309 309 310 311 313 315 316 318 317 316 314 314 314 313 314 314 310 311 311 313 313 314 312 312 311 313 313 312 312 312 311 311 311 311
324 323 322 318 310 308 308 308 309 309 309 309 309 312 311 314 316 316 317 316 315 314 313 313 314 310 308 310 314 313 313 313 315 313 312 311 310 310 311 311 312 312 311 311 311
322 323 323 323 322 316 307 309 309 312 311 309 311 310 314 313 315 316 316 315 314 313 311 313 311 311 311 309 312 313 313 315 314 314 312 311 311 311 311 310 310 311 312 311 312
320 318 321 321 323 323 316 308 311 314 313 312 311 312 315 316 315 315 316 315 314 313 312 311 311 311 311 311 311 312 313 312 312 312 311 312 310 310 309 310 312 312 312 313 312
318 319 318 319 321 321 322 316 310 315 313 311 309 312 313 314 316 315 315 314 313 312 312 313 314 313 313 313 313 312 312 312 314 313 311 311 310 310 310 311 313 313 314 314 314
319 320 320 318 319 319 321 321 312 310 306 306 313 312 312 315 314 315 315 315 312 312 312 312 313 314 313 313 313 314 312 314 314 315 315 311 316 313 311 310 309 312 312 313 312
316 317 319 320 320 319 319 321 313 313 311 309 312 314 313 313 312 313 315 314 311 312 312 314 313 313 314 314 313 314 313 313 314 313 313 313 313 313 312 312 312 313 314 313 312
313 316 316 318 320 320 320 319 313 315 311 312 314 313 313 314 311 310 313 312 312 312 312 312 312 312 313 312 312 311 312 311 310 311 314 314 313 315 314 314 314 313 315 315 314
308 311 315 316 317 319 319 313 311 316 313 313 315 313 314 313 310 310 310 310 313 314 314 312 312 312 311 312 311 312 313 315 316 314 317 312 312 317 314 313 312 314 316 315 314
307 309 311 315 317 318 316 311 313 312 314 313 314 313 315 314 312 310 310 313 311 312 312 315 315 312 310 313 314 312 313 314 315 316 314 310 315 315 311 313 315 315 313 312 310
307 307 309 312 317 317 315 315 317 314 312 314 315 316 314 314 312 310 310 311 311 310 314 314 314 310 309 311 313 311 314 313 316 298 309 314 313 312 309 308 309 312 309 309 310
306 306 307 308 314 316 317 318 314 313 313 315 318 316 316 315 313 311 309 309 311 311 311 313 315 309 309 312 311 311 310 314 311 313 313 315 314 317 313 310 309 307 306 308 307
306 305 307 307 310 315 318 318 315 313 314 316 318 319 316 315 313 311 313 311 310 310 311 312 315 312 310 311 312 311 312 312 312 311 313 312 317 310 314 311 310 308 310 309 308
305 307 307 310 313 314 317 316 316 313 313 315 316 317 316 315 315 313 312 312 312 310 312 311 315 311 311 309 308 311 313 311 313 313 311 312 319 309 310 310 310 311 312 310 309
304 305 306 311 311 311 313 315 315 316 315 315 316 316 315 315 317 314 312 311 312 311 311 312 314 312 313 311 309 310 311 313 312 310 314 315 320 306 306 310 311 311 312 308 307
302 304 304 306 310 310 310 312 314 314 316 315 315 316 317 317 316 317 315 314 313 312 313 313 314 314 318 317 311 311 310 311 315 317 316 317 318 313 311 310 309 311 311 309 307
300 302 303 307 305 306 309 311 312 313 314 314 316 316 317 319 318 318 317 314 310 312 313 314 317 314 315 315 312 311 311 312 314 315 318 319 317 317 313 309 311 313 310 308 306
298 300 303 303 306 306 307 308 310 311 311 313 317 315 315 318 318 319 318 317 316 311 312 312 317 316 317 315 312 313 310 311 313 314 315 316 317 313 315 314 310 313 311 308 309
298 299 301 301 301 304 306 308 307 308 309 310 310 313 313 314 314 316 316 316 316 316 314 314 316 315 320 316 313 316 316 312 311 312 313 315 315 312 312 310 311 313 312 312 313

GFSSW_850_thetae_057.txt.gz
Theta_e
308 308 308 308 308 308 309 309 309 309 310 310 311 311 312 313 313 314 314 313 313 311 312 312 312 314 314 313 313 314 307 309 311 311 314 315 314 314 315 315 315 316 316 316 321
308 308 309 309 309 309 309 309 309 309 310 310 311 311 312 313 314 315 315 314 314 312 311 312 313 315 316 315 315 311 306 310 311 311 313 314 314 315 315 314 313 315 316 316 319
309 309 309 309 309 309 309 309 309 309 309 310 311 311 312 313 316 317 313 312 313 312 312 313 314 315 315 315 315 311 310 310 314 316 315 314 314 315 313 311 314 315 316 316 318
310 310 310 310 310 310 310 310 309 309 309 309 310 311 312 314 315 314 311 311 312 312 312 313 314 314 313 314 315 311 313 312 315 315 315 314 315 314 314 315 316 315 316 316 316
310 310 310 310 310 310 310 310 310 310 309 309 309 310 312 314 316 318 314 311 311 311 312 314 314 314 313 314 315 313 313 314 315 315 315 316 315 314 314 315 316 315 314 315 315
310 310 311 310 310 310 310 309 309 310 309 309 309 309 311 313 315 318 318 313 311 313 314 314 314 315 314 314 313 314 314 315 315 315 315 314 314 315 315 316 316 315 314 314 313
307 309 310 310 310 310 310 309 309 309 309 309 309 309 310 311 314 317 318 316 312 312 314 314 314 314 315 314 314 314 313 311 312 314 314 314 312 311 315 315 314 314 314 313 313
317 309 307 308 309 309 309 309 309 309 309 309 309 309 310 311 312 315 317 316 316 314 313 313 314 315 315 314 313 313 310 313 312 312 314 313 312 311 313 314 313 313 313 313 313
323 321 316 311 308 307 308 308 308 308 309 309 309 309 310 311 312 314 316 317 316 315 314 315 313 314 314 310 311 309 312 312 312 311 311 310 312 312 312 312 312 313 313 313 313
323 323 322 321 317 310 308 308 308 308 309 309 309 310 310 312 313 314 316 316 315 314 313 313 313 309 306 309 312 312 312 311 313 312 310 311 309 309 312 311 312 311 312 312 312
317 321 323 322 322 322 316 307 308 310 310 309 310 309 312 312 314 316 316 315 314 313 311 312 310 311 311 308 311 311 311 313 313 313 312 310 310 311 311 310 309 311 312 312 313
317 317 318 319 322 321 322 312 310 313 312 311 310 311 313 314 315 316 316 315 313 312 310 310 310 310 310 310 310 312 313 312 311 310 310 311 310 309 309 309 311 313 313 313 314
319 319 319 318 317 319 318 321 313 314 312 310 309 311 310 313 314 315 315 314 312 311 310 312 313 311 311 311 312 311 311 311 313 312 309 310 310 309 310 310 311 313 314 314 315
319 320 319 320 318 318 317 318 320 313 306 306 310 312 311 312 313 314 315 315 311 312 310 311 312 313 312 312 311 313 310 311 312 314 314 311 315 313 310 309 308 312 314 316 315
316 317 318 319 320 318 318 319 316 312 320 310 310 312 312 312 310 313 314 314 310 311 311 312 312 312 313 312 311 313 311 311 313 312 313 312 312 314 311 311 311 312 315 317 317
309 314 316 316 318 319 319 319 315 313 315 311 313 312 312 312 310 310 312 312 312 311 311 310 312 311 312 311 311 310 311 310 309 310 313 314 312 315 312 313 312 313 315 315 316
307 308 311 315 317 317 318 315 313 316 312 313 314 312 313 311 310 309 310 310 312 313 312 311 311 311 311 312 310 312 313 314 313 312 316 309 311 315 311 311 310 312 317 317 315
307 307 308 311 316 316 316 313 314 315 312 312 313 312 314 312 311 309 310 312 309 311 310 312 312 311 309 314 313 312 312 314 313 313 312 310 314 314 309 312 313 314 315 314 314
306 307 307 308 312 316 315 316 317 312 311 313 314 316 314 313 312 310 309 310 310 310 312 312 312 310 309 310 312 311 313 312 314 297 308 312 311 310 309 308 310 312 312 311 313
306 306 306 306 308 315 316 317 316 312 312 314 318 316 317 314 313 310 309 309 310 310 310 312 313 310 309 311 310 311 310 313 310 312 311 313 313 315 314 312 309 309 311 312 312
306 305 305 305 307 311 314 315 315 313 314 315 316 317 315 314 314 310 312 311 309 309 311 311 312 310 309 310 311 311 311 311 311 310 311 311 315 309 313 311 312 309 314 314 314
304 305 304 307 309 310 312 313 313 314 314 314 315 316 315 314 314 312 312 311 311 310 311 310 313 310 310 308 307 310 311 311 312 310 309 310 316 310 309 309 310 313 315 314 313
301 302 304 307 309 309 309 311 313 315 315 314 316 316 315 317 318 314 311 310 311 311 311 311 313 309 312 311 307 309 310 312 311 308 312 313 317 305 307 307 310 312 313 313 313
299 300 302 302 305 308 308 309 311 314 315 314 315 315 315 317 316 315 313 311 311 311 312 313 314 312 317 315 311 310 310 310 313 315 315 316 317 314 312 308 309 313 313 313 314
299 300 301 304 302 303 307 309 309 310 313 314 315 315 316 318 317 316 313 312 310 311 312 314 314 314 315 311 311 310 310 311 313 314 315 316 315 316 314 309 312 316 316 312 313
298 298 301 301 302 303 303 306 308 310 310 312 313 311 313 315 316 318 316 316 317 311 312 313 315 313 315 313 312 313 310 310 312 313 314 314 315 314 314 313 311 314 315 312 313
298 298 299 300 300 300 304 304 304 306 308 309 310 311 312 311 311 313 313 314 315 316 311 313 314 316 319 315 315 316 314 314 312 312 313 315 315 312 313 310 312 314 313 313 315

GFSSW_850_thetae_060.txt.gz
Theta_e
307 307 308 308 308 308 308 308 309 309 309 310 310 311 312 312 312 313 313 313 312 311 313 312 312 314 313 313 314 314 307 309 311 310 313 313 313 312 314 314 316 316 316 316 319
307 308 308 308 308 308 308 308 309 309 309 310 310 311 311 312 313 313 314 314 313 311 311 312 312 314 315 315 314 309 305 308 309 309 313 313 313 313 314 313 314 315 316 316 319
308 308 309 309 309 309 308 308 308 309 309 309 310 311 311 312 314 316 314 313 314 312 311 313 313 315 314 314 314 309 307 309 313 315 314 313 313 314 312 311 314 315 316 316 318
309 309 309 309 309 309 309 309 309 309 309 309 309 310 311 313 312 313 310 311 312 312 312 313 314 314 312 313 314 311 312 311 314 315 313 312 313 313 313 315 315 315 315 316 317
309 309 309 309 309 309 309 309 309 309 309 309 309 310 311 313 315 317 312 311 311 311 312 313 313 314 311 314 314 312 312 313 314 314 314 314 314 313 314 315 315 315 315 315 316
310 310 310 310 310 310 310 309 309 309 309 310 309 309 310 311 314 317 317 311 311 312 313 313 314 314 313 313 312 313 314 313 314 314 314 314 313 314 315 316 315 315 315 315 316
308 308 310 310 310 310 310 310 309 309 309 309 310 310 309 310 312 316 317 316 311 313 314 314 314 314 314 313 313 313 313 311 311 313 313 314 311 311 315 315 315 315 315 314 314
320 311 308 307 309 309 310 309 309 309 309 309 309 309 310 310 310 316 317 316 315 312 313 313 314 315 315 313 312 311 309 312 311 311 313 313 311 310 313 313 315 315 315 314 314
323 323 318 311 309 307 307 308 308 308 308 309 309 309 310 310 311 313 316 316 316 315 314 314 313 313 313 309 310 308 312 312 311 310 311 310 311 312 312 311 312 313 314 314 314
320 323 323 321 318 314 310 308 308 308 308 308 308 309 310 311 311 312 315 316 315 314 313 313 313 308 305 309 311 311 312 310 312 312 310 311 308 308 312 311 313 313 313 313 314
318 319 322 323 322 321 320 314 307 309 309 309 309 308 311 311 313 314 315 315 314 312 310 311 309 310 310 308 310 309 310 312 311 311 311 310 309 309 312 310 310 313 314 315 314
319 317 319 322 319 319 320 320 310 313 313 310 310 309 311 312 314 315 315 314 313 311 310 309 310 309 309 308 310 311 312 311 309 310 310 310 310 309 309 310 312 313 314 315 316
320 318 317 319 318 316 316 316 319 314 312 311 310 311 310 311 313 314 315 314 311 310 309 310 312 309 310 310 311 310 310 310 312 311 308 309 309 308 309 310 313 314 314 315 316
318 319 319 318 319 319 317 316 319 316 310 309 309 312 311 311 313 313 314 314 311 311 309 310 310 311 310 311 311 311 309 310 311 313 312 310 313 311 310 309 307 312 314 316 316
315 316 318 319 319 318 318 317 315 317 324 311 310 311 312 310 310 312 313 314 310 310 310 311 310 311 312 311 309 312 309 309 311 311 311 310 313 313 310 311 311 311 315 316 317
308 311 315 316 316 318 318 318 317 315 319 312 312 312 311 311 310 311 312 312 311 310 311 310 310 310 311 310 310 308 310 309 308 309 313 310 311 312 310 312 311 312 315 316 316
307 307 309 314 316 317 317 316 315 318 313 315 313 311 312 311 309 310 310 310 311 313 312 311 311 310 311 311 310 311 312 313 311 311 314 309 311 314 310 309 309 311 316 316 315
307 307 307 308 313 316 315 314 317 316 312 311 312 311 312 311 310 309 309 311 310 310 308 311 311 310 309 312 312 311 312 312 309 310 310 308 313 312 309 310 312 314 315 313 314
305 305 306 306 308 315 314 315 317 313 311 313 314 315 313 313 311 310 309 309 310 308 310 309 309 309 308 310 311 310 313 311 312 296 307 310 308 309 308 308 309 312 312 313 314
303 304 305 305 306 310 314 314 316 312 310 313 316 314 313 313 312 309 308 308 310 309 309 310 311 309 309 310 309 310 309 312 309 311 309 311 311 312 312 312 309 308 311 314 315
302 303 303 304 305 309 310 314 313 313 313 314 315 317 315 314 313 310 311 310 307 309 310 309 310 310 309 309 310 310 311 310 310 309 309 309 314 307 310 310 311 309 314 314 315
301 302 303 305 307 307 308 309 310 312 313 313 313 315 316 313 313 311 311 311 310 309 310 309 311 310 309 308 306 309 310 310 311 309 307 309 315 309 308 308 309 312 313 314 315
300 301 302 305 306 306 306 307 308 311 314 314 315 314 313 314 316 314 310 310 310 310 310 310 312 307 312 310 307 309 309 310 309 307 310 312 315 306 307 309 311 311 314 314 314
299 296 299 301 303 306 305 306 307 309 310 311 313 314 315 316 315 315 313 310 311 312 315 313 313 314 317 314 309 310 308 309 312 314 314 312 315 313 312 310 309 312 314 314 314
299 298 298 298 299 301 303 306 307 307 309 312 313 313 314 316 317 317 314 312 310 310 312 314 314 314 313 312 310 310 310 310 312 313 313 315 313 314 312 309 312 316 314 314 315
299 298 299 299 302 299 299 302 305 306 308 308 311 312 314 315 315 317 316 314 315 309 311 313 314 313 314 313 313 313 310 310 311 312 313 313 314 313 313 314 311 313 316 314 315
298 299 299 299 298 299 301 302 301 301 304 305 307 309 311 311 312 311 310 311 310 312 311 313 314 314 318 313 312 314 313 313 311 311 312 313 313 313 312 309 313 313 314 314 315

GFSSW_850_thetae_063.txt.gz
Theta_e
307 307 307 307 308 308 308 308 308 309 309 309 310 310 311 311 312 312 312 312 312 312 313 312 312 314 313 314 315 313 310 311 312 310 313 311 311 311 313 314 316 316 315 316 318
307 307 307 308 308 308 308 308 308 309 309 309 310 310 311 311 312 313 314 313 313 311 311 311 312 314 314 314 313 309 308 310 309 308 312 311 312 312 313 313 315 315 316 316 318
307 307 308 308 308 308 308 308 308 308 309 309 309 310 311 312 313 314 314 314 314 312 311 312 312 314 313 313 313 308 307 307 312 313 313 312 312 313 312 311 314 316 316 316 316
308 308 308 308 309 309 309 309 309 309 309 309 309 309 310 312 310 314 311 311 312 312 311 312 313 313 311 311 313 312 311 310 313 314 313 311 312 312 312 315 315 315 315 315 316
309 309 309 309 309 309 309 309 309 309 309 309 309 309 310 312 313 315 310 310 311 311 311 312 313 313 310 313 313 311 311 312 313 314 314 313 312 312 312 315 315 315 315 315 315
310 310 310 310 310 310 309 309 309 309 309 309 309 309 309 310 312 317 316 310 311 311 312 313 313 314 313 312 311 312 313 312 313 314 313 313 313 313 315 315 315 314 315 315 315
309 309 310 310 310 310 310 310 309 309 309 309 309 309 310 310 311 316 317 313 312 312 313 313 314 314 313 312 313 312 312 311 311 312 313 313 311 310 314 315 315 315 315 315 315
322 316 309 308 308 309 310 310 310 309 309 309 309 309 310 310 310 313 316 316 312 312 313 313 314 314 314 312 311 310 309 312 310 311 312 312 311 311 312 312 314 315 315 315 315
323 323 321 317 312 309 308 307 308 309 309 308 308 309 309 310 310 312 316 315 314 313 313 313 313 313 312 309 310 308 311 311 311 310 310 310 311 311 313 312 313 313 314 314 315
319 320 323 322 321 320 318 313 308 307 308 308 308 308 309 311 311 311 314 316 315 314 314 313 313 307 305 309 311 311 312 310 311 311 309 310 310 308 313 310 313 314 314 314 314
317 318 320 322 322 322 320 318 308 308 309 308 308 307 310 311 312 312 313 315 314 313 310 310 309 310 310 308 309 308 310 311 309 309 311 310 309 310 312 311 311 314 315 316 317
319 318 318 318 319 319 317 318 316 313 311 310 310 309 309 311 314 314 314 314 313 310 309 308 309 309 308 307 310 310 311 311 309 308 310 310 310 310 309 312 314 314 315 316 316
319 320 318 319 320 318 317 317 318 318 314 314 312 309 309 309 312 314 314 313 310 308 308 309 310 308 309 308 309 309 310 310 311 310 308 308 309 308 308 309 311 314 315 315 316
317 318 319 318 317 317 317 317 318 316 315 313 311 313 312 310 311 312 314 313 310 310 307 309 309 309 309 310 309 311 307 309 311 312 311 309 311 310 308 309 307 312 314 315 316
313 316 318 318 318 318 318 318 316 315 321 313 310 311 311 310 309 312 313 313 309 309 309 310 309 310 311 310 308 310 307 308 310 310 310 310 312 311 309 310 310 311 314 315 316
308 311 315 316 317 318 318 317 316 316 318 315 311 312 310 310 309 311 311 312 311 310 310 309 309 309 310 309 309 307 309 308 306 308 312 310 311 312 309 311 310 310 314 315 315
307 307 308 313 316 316 317 316 316 318 313 314 312 310 310 310 309 310 310 310 309 312 311 310 310 309 310 310 309 310 311 311 310 311 315 307 310 313 309 308 309 310 315 315 315
306 307 306 307 313 316 315 315 315 315 313 310 311 310 311 309 309 309 309 311 309 308 307 310 310 310 308 310 311 309 311 311 309 308 308 308 312 311 308 310 311 312 313 313 312
303 305 306 306 307 312 314 316 313 312 312 312 313 314 312 312 309 309 308 309 309 307 310 308 309 308 308 309 310 310 312 310 310 295 307 308 307 307 306 307 308 312 312 312 314
297 302 302 304 306 309 313 314 314 311 310 312 316 313 313 312 311 308 307 307 309 308 308 308 310 308 308 310 309 309 308 312 308 309 308 309 309 311 312 311 309 307 311 314 314
298 301 302 302 305 308 308 311 311 312 312 314 315 316 313 312 311 308 310 308 307 308 309 308 309 309 308 309 309 310 310 309 309 308 309 308 312 306 309 309 308 308 312 314 314
300 300 303 304 305 306 306 307 308 310 312 313 313 314 314 312 313 310 310 310 309 308 310 308 310 309 309 307 305 307 309 309 310 308 306 307 314 307 308 309 309 309 312 314 315
299 300 302 305 303 304 304 305 306 308 310 313 314 312 312 314 316 312 310 309 310 309 310 309 311 306 311 310 307 307 307 309 307 307 309 312 315 305 306 308 310 310 312 313 314
298 296 299 302 304 303 302 303 304 306 306 307 310 312 313 312 314 314 312 310 310 310 311 311 312 312 317 312 309 309 307 308 311 310 313 311 314 312 311 311 309 312 313 314 315
299 297 298 296 299 300 303 304 304 304 306 307 308 308 309 310 311 311 310 311 311 309 312 314 316 313 313 312 310 310 309 310 311 312 313 314 312 313 311 309 312 314 314 313 314
299 298 298 297 299 297 299 301 302 303 305 307 306 306 307 311 311 311 313 313 314 309 311 312 316 314 315 313 314 314 310 308 310 312 312 312 313 313 313 312 311 313 314 314 314
297 298 298 298 297 297 298 298 298 299 301 303 305 304 305 307 308 308 307 309 309 309 307 310 314 314 317 314 314 315 314 314 313 310 312 312 312 312 311 309 311 312 313 314 315

GFSSW_850_thetae_066.txt.gz
Theta_e
308 307 307 307 307 308 308 308 308 309 309 309 310 310 311 311 311 312 312 312 312 312 313 312 312 314 314 316 316 315 320 321 320 318 319 314 316 312 314 315 316 317 316 316 319
307 307 307 307 307 308 308 308 308 308 309 309 309 310 311 311 312 312 312 312 312 311 312 312 312 314 314 314 314 317 320 319 317 317 317 315 315 315 315 315 316 316 316 316 318
307 307 307 307 308 308 308 308 308 308 308 309 309 310 310 311 313 314 313 313 313 312 311 311 312 314 315 314 314 313 319 313 314 313 314 315 314 313 315 317 317 317 316 316 318
307 307 308 308 308 308 308 308 308 309 309 308 309 309 310 311 313 314 314 312 313 313 311 312 313 314 315 316 313 315 312 313 314 314 314 315 314 314 314 318 316 316 315 316 315
308 308 308 308 309 309 309 309 309 309 309 309 309 309 309 311 313 313 310 310 311 312 311 312 313 314 315 315 313 314 314 312 313 313 313 313 314 315 313 315 315 315 315 315 315
309 309 309 309 309 309 309 309 309 309 309 309 309 309 309 311 311 316 313 310 311 311 311 312 312 312 314 314 315 314 314 314 313 314 313 315 315 314 316 315 315 315 315 315 315
309 310 310 310 310 310 310 310 310 309 309 309 309 309 309 310 310 314 316 311 311 312 312 312 313 314 313 315 312 312 316 315 314 314 315 313 316 315 315 315 314 314 315 315 315
320 314 309 308 308 309 310 310 310 310 309 309 309 309 309 309 310 313 316 315 312 313 313 313 314 314 314 312 314 315 316 317 315 313 314 314 318 317 312 312 314 315 315 315 315
321 323 321 317 312 309 308 307 308 309 309 309 309 309 309 309 310 312 315 315 313 312 313 313 314 313 313 317 317 316 317 317 317 313 314 315 318 317 313 312 314 315 314 314 314
318 320 322 322 321 319 318 313 309 308 307 307 308 308 309 310 310 312 315 314 314 313 313 313 313 316 315 317 316 317 317 315 316 315 313 316 316 317 315 312 314 315 316 315 315
317 316 319 321 322 322 321 319 310 308 308 308 308 307 309 309 311 312 314 315 314 313 316 311 316 317 317 316 314 314 315 315 315 313 315 316 317 317 316 315 315 315 315 316 316
316 318 318 318 319 320 320 318 317 315 315 309 309 308 308 310 312 313 314 314 313 315 312 314 315 316 313 312 313 314 316 316 316 312 313 316 316 316 316 316 316 316 316 316 316
318 319 320 318 318 319 318 316 317 317 318 318 313 310 309 309 311 313 314 313 314 313 314 315 314 312 313 312 314 315 316 315 315 313 312 313 316 317 316 314 314 314 315 315 316
316 317 319 319 318 318 319 317 317 316 320 319 313 314 312 310 310 311 313 313 312 314 313 314 312 312 312 313 314 315 313 314 314 315 316 313 314 316 316 315 314 315 316 316 315
312 315 318 318 318 317 317 317 317 315 323 316 312 312 311 310 310 312 312 313 314 313 313 314 312 313 314 314 313 315 312 313 313 316 315 315 315 315 313 315 316 316 316 316 315
308 310 315 317 317 318 318 317 315 318 321 316 311 313 311 310 310 310 311 311 311 312 311 312 309 312 313 310 312 310 313 313 313 315 317 315 315 315 316 315 316 315 315 315 314
307 307 308 314 316 316 318 316 318 321 314 316 314 312 312 312 311 312 312 312 313 313 313 312 313 311 310 313 311 313 316 316 317 318 318 312 315 315 315 314 314 315 315 314 313
305 306 306 310 315 314 315 315 318 318 317 312 312 311 313 311 311 311 313 314 312 311 312 313 313 313 312 314 315 314 315 316 322 317 315 310 315 316 315 313 313 313 314 313 313
298 303 306 306 311 313 314 315 317 315 315 314 313 314 314 312 311 311 313 313 314 312 312 312 312 310 309 311 313 313 314 314 314 307 314 314 315 315 313 312 312 312 313 314 313
297 297 302 306 306 311 312 314 314 313 312 314 318 316 316 314 312 311 312 312 312 312 312 312 312 310 309 310 310 312 313 315 314 320 318 315 314 316 316 317 315 314 314 313 313
298 299 298 302 306 309 311 311 311 311 312 313 315 316 316 315 314 312 313 311 310 310 311 312 312 311 311 312 314 313 313 312 313 315 319 317 315 315 316 316 315 315 312 313 314
299 301 303 301 306 306 309 308 309 311 312 313 313 315 315 315 316 314 313 313 309 310 311 311 313 314 312 310 309 311 314 314 315 316 314 314 316 311 313 314 312 313 312 313 314
299 300 303 305 305 306 305 306 307 308 310 312 313 313 313 313 316 316 316 311 310 311 312 311 314 317 317 312 308 311 312 312 314 312 319 319 318 311 310 312 311 312 313 314 314
298 300 299 304 304 303 303 305 306 306 307 308 310 311 313 313 313 313 313 312 310 310 310 311 313 317 320 318 314 312 312 312 313 315 316 316 316 316 314 314 313 313 313 313 314
298 300 299 301 302 303 303 303 303 304 306 307 306 307 309 309 310 311 310 309 308 308 309 312 314 314 316 316 315 315 314 313 313 314 316 316 316 316 315 315 314 314 314 314 314
298 299 296 298 299 301 302 304 304 304 305 305 305 305 307 309 308 309 310 311 311 311 312 312 314 315 315 316 316 315 314 313 313 314 314 314 315 315 314 314 314 313 313 314 314
298 298 298 299 300 301 302 302 302 302 302 303 305 306 306 306 304 306 306 305 305 307 307 307 310 314 316 315 315 316 315 316 315 315 315 316 316 316 316 315 314 313 312 312 313

GFSSW_850_thetae_069.txt.gz
Theta_e
308 308 308 307 307 308 308 308 308 309 309 309 310 310 310 311 311 312 314 313 313 313 313 313 313 314 315 318 318 317 321 322 322 322 320 318 319 317 318 318 318 319 319 320 324
307 307 307 307 307 308 308 308 308 308 309 309 309 310 310 311 312 313 312 312 312 312 313 313 315 315 317 319 318 319 321 321 321 321 320 319 318 318 317 318 318 318 317 316 325
307 307 307 307 307 308 308 308 308 308 308 308 309 309 310 311 314 316 313 313 312 312 311 312 314 315 317 317 318 319 321 320 318 317 317 319 318 317 317 319 319 319 319 316 320
307 307 307 307 308 308 308 308 308 308 308 308 309 309 310 311 315 313 314 313 313 312 311 312 314 315 316 317 316 317 316 316 317 316 316 317 317 317 317 319 318 318 318 317 321
307 307 308 308 308 308 309 309 309 309 309 309 309 309 309 312 315 314 312 311 311 312 311 314 314 315 316 316 315 315 316 314 315 315 316 315 317 318 318 318 317 316 316 317 319
308 308 308 309 309 309 309 309 309 309 309 309 309 309 309 313 311 315 311 310 311 312 312 312 314 314 315 316 316 316 315 315 315 316 315 316 317 316 317 317 317 316 315 316 317
309 309 309 309 310 310 310 310 310 309 309 309 309 309 309 312 310 315 314 310 311 311 313 312 312 315 316 316 315 316 317 316 316 316 316 315 317 316 316 315 316 316 316 316 316
313 310 309 310 310 310 310 310 310 310 310 309 309 309 312 309 310 314 316 312 312 312 312 313 313 315 317 315 316 317 317 317 318 316 316 317 317 319 317 317 316 316 317 317 316
321 321 317 312 309 308 308 308 309 309 309 309 309 309 312 309 310 312 315 313 312 313 313 313 314 317 316 317 318 318 316 318 318 316 317 317 319 319 316 316 316 317 317 317 317
319 320 322 322 320 317 315 312 309 308 308 308 308 310 310 311 310 311 314 314 313 312 313 314 315 316 317 317 316 317 318 317 318 317 316 318 318 318 317 317 317 317 317 318 318
316 318 319 321 322 322 321 319 313 311 308 311 310 308 309 309 310 311 314 313 314 315 316 315 315 315 316 316 317 316 317 317 317 316 316 317 317 317 317 317 317 317 317 317 317
316 316 316 319 321 321 320 318 315 315 317 312 308 308 309 310 314 312 314 315 315 317 316 316 316 316 317 317 317 317 316 316 317 316 315 316 317 317 317 317 317 317 317 317 317
316 316 317 318 317 319 317 317 316 317 319 319 315 311 310 308 312 315 313 314 315 316 316 316 315 315 315 315 316 316 316 316 316 316 316 316 317 318 318 318 317 317 317 317 317
317 318 318 319 318 318 318 317 317 316 322 320 316 316 311 311 311 313 313 314 314 315 315 315 315 314 315 315 315 315 316 316 316 316 315 316 316 316 317 317 318 317 317 317 317
313 315 317 318 319 319 318 318 317 318 329 319 313 313 311 312 311 312 312 313 315 315 315 315 315 315 315 315 315 316 315 315 316 317 317 317 317 316 317 317 317 317 317 318 318
309 312 315 317 317 318 317 317 316 319 324 317 314 314 312 311 311 311 312 312 312 315 314 315 312 314 315 313 314 314 315 316 316 316 316 315 316 316 317 317 317 317 317 317 317
307 308 312 315 317 315 317 316 317 321 316 317 315 314 315 314 312 313 313 313 313 313 313 314 314 313 312 314 313 315 316 315 317 320 317 316 316 317 317 316 317 317 316 316 316
304 307 307 314 315 316 317 315 318 319 317 314 315 314 315 314 313 312 314 314 313 313 314 314 314 314 313 315 315 315 316 317 321 319 318 313 317 316 317 317 316 315 315 315 315
297 303 306 308 313 314 315 316 319 317 317 316 315 316 315 313 314 313 313 315 315 314 314 314 314 313 313 313 314 315 316 316 318 317 315 315 316 317 317 315 315 315 315 315 315
299 299 303 306 310 312 313 315 315 314 314 316 318 317 318 316 314 314 315 314 314 314 313 314 315 312 312 312 312 313 314 316 315 321 319 316 317 317 317 317 317 316 315 316 315
299 300 299 305 306 311 312 313 313 313 313 315 317 318 318 317 315 314 315 313 313 312 313 313 313 313 312 313 314 313 313 314 314 316 319 319 317 317 317 317 317 318 317 315 315
301 302 299 304 308 308 311 310 310 310 312 313 314 315 316 316 317 317 316 314 311 312 313 313 314 316 314 313 313 314 314 314 316 316 315 316 318 316 316 316 316 315 316 314 314
301 301 302 303 306 308 307 308 308 309 311 312 313 313 314 314 315 315 316 314 311 312 313 312 314 317 316 315 311 312 313 313 315 314 320 320 316 315 316 315 315 314 315 315 315
300 301 302 303 304 304 305 305 307 306 308 310 311 312 312 313 313 314 315 313 311 311 309 311 314 317 319 318 317 314 313 314 314 316 316 317 317 316 316 316 316 315 315 315 315
299 300 301 304 303 304 304 303 304 305 306 307 308 310 311 311 313 313 312 311 310 310 309 309 314 313 315 316 316 317 317 316 314 314 315 316 316 316 316 316 316 316 315 315 315
298 300 300 301 302 303 304 303 304 304 305 305 306 306 308 309 308 308 307 307 309 311 311 310 312 312 314 313 314 316 317 317 317 316 316 315 316 316 316 315 315 315 315 315 315
298 298 300 300 300 304 303 303 304 303 304 303 305 305 306 306 306 307 307 307 307 307 308 307 310 313 314 313 311 313 315 316 317 316 316 316 316 316 316 316 316 316 316 315 315

GFSSW_850_thetae_072.txt.gz
Theta_e
308 308 308 308 308 308 308 308 308 308 309 309 309 310 310 311 311 311 315 315 313 314 313 313 313 315 317 319 319 319 320 320 322 322 321 319 319 318 319 319 318 318 319 323 323
308 307 307 307 307 308 308 308 308 308 308 309 309 309 310 310 311 312 315 312 312 312 313 313 315 315 317 319 319 319 320 320 319 318 318 318 319 317 317 318 318 318 318 322 323
307 307 307 307 307 307 308 308 308 308 308 308 309 309 310 311 314 317 314 312 312 311 313 314 314 315 316 318 319 320 320 317 317 317 317 319 318 318 318 317 318 318 318 318 322
307 307 307 307 307 307 308 308 308 308 308 308 308 309 309 311 318 313 313 313 312 312 311 312 314 315 316 317 318 317 318 317 317 316 317 318 318 318 317 318 318 319 319 319 317
307 307 307 307 307 308 308 308 308 308 309 309 309 309 309 312 317 313 313 313 313 313 311 314 314 315 316 316 316 315 316 314 315 315 316 316 316 317 318 318 318 318 318 319 318
307 307 308 308 308 308 309 309 309 309 309 309 309 309 309 314 312 313 310 311 311 312 312 314 314 314 315 316 316 316 316 315 315 316 316 315 316 316 317 317 317 317 317 317 318
308 308 308 309 309 309 309 309 309 309 309 309 309 309 309 313 310 314 312 310 310 312 313 313 313 314 315 316 315 316 316 315 315 316 316 315 315 314 316 316 316 317 317 316 316
309 309 309 309 309 310 310 310 310 310 310 309 309 309 312 311 310 313 314 312 311 311 313 312 312 316 317 316 316 316 316 316 317 316 316 316 314 316 316 317 316 316 316 316 316
320 315 312 309 309 309 309 310 310 310 310 310 309 309 312 309 310 312 315 313 312 312 312 313 314 317 315 316 316 316 313 314 316 316 316 315 317 318 317 316 316 316 316 316 317
320 321 322 317 315 312 310 309 309 308 308 308 308 309 310 311 310 311 314 313 313 313 313 314 316 316 315 314 314 316 316 315 317 316 315 315 314 315 317 317 317 317 317 318 318
319 319 320 322 322 321 320 319 313 311 308 311 311 309 310 310 310 311 314 313 314 314 314 315 314 313 314 314 315 316 316 314 315 315 316 315 314 314 316 316 316 317 317 317 317
316 317 317 319 322 321 320 318 315 315 318 311 310 309 309 310 314 313 313 314 315 315 316 315 314 314 315 317 316 316 315 314 314 314 315 314 313 313 314 315 316 317 317 317 317
316 316 316 316 317 319 319 318 317 317 319 320 316 309 309 309 312 314 313 314 315 315 316 316 316 315 316 316 316 315 314 314 314 315 313 313 313 314 315 315 315 316 317 317 317
316 317 316 314 316 317 319 316 317 316 321 321 317 316 311 310 311 315 312 314 314 314 315 315 315 315 315 315 314 314 314 314 315 314 313 315 313 313 312 312 314 317 317 317 316
313 316 317 316 318 319 319 318 317 318 324 318 315 314 312 311 311 314 313 314 314 313 314 314 313 314 315 315 314 314 314 315 315 315 315 315 313 312 311 313 313 315 317 317 317
310 312 315 317 318 318 319 318 317 319 323 318 314 313 312 311 312 311 312 313 313 314 314 314 312 314 315 312 313 313 315 315 315 314 312 312 313 311 312 314 315 316 317 317 317
307 309 313 316 316 315 317 316 317 320 317 317 316 315 315 313 313 313 312 312 312 313 314 314 313 313 313 313 313 315 314 313 315 314 314 313 312 312 314 313 314 314 316 316 315
305 307 308 313 315 313 315 314 317 318 318 315 315 315 316 315 314 313 313 313 311 311 312 312 312 313 311 313 314 313 313 314 313 316 313 311 312 312 314 315 316 315 315 315 315
299 304 307 309 313 314 315 312 318 318 317 316 315 316 316 314 314 313 313 314 313 311 312 313 313 312 311 312 313 314 313 313 313 305 311 312 312 312 313 313 314 315 315 315 314
300 299 303 306 311 313 313 314 315 315 315 316 318 317 317 315 314 313 314 314 313 313 312 313 314 312 310 312 312 312 312 314 312 312 312 312 312 312 312 313 312 312 316 316 315
300 300 301 304 308 311 313 313 314 313 314 316 317 319 319 316 314 314 315 312 312 312 313 313 313 312 311 311 312 312 312 313 312 312 313 312 311 313 313 314 315 315 315 315 314
301 302 301 305 309 309 310 310 310 311 313 313 314 316 317 317 317 316 315 313 311 312 313 313 314 312 312 311 310 312 311 312 312 312 310 312 314 314 312 313 315 314 315 315 315
301 301 300 306 306 307 308 309 309 309 310 313 313 314 314 316 317 317 316 313 312 312 312 312 313 310 313 313 310 311 311 312 312 310 313 313 313 310 312 314 315 315 315 315 315
300 301 301 302 304 305 306 306 307 307 308 310 311 312 312 313 313 313 314 313 311 310 310 312 314 313 314 317 315 315 314 312 313 314 313 313 313 313 312 311 312 314 315 315 315
299 300 301 302 301 303 305 305 305 306 307 307 309 310 311 312 312 312 313 312 312 311 310 310 313 313 313 313 313 314 315 316 318 315 314 313 312 313 312 311 313 314 315 315 315
299 300 300 302 302 300 303 304 304 304 306 306 307 307 308 309 310 311 312 312 311 308 310 309 310 311 308 310 311 311 312 313 314 316 317 316 314 313 313 314 313 314 314 315 315
296 298 299 300 301 303 301 302 303 303 304 304 305 305 305 307 306 306 307 307 307 307 306 307 309 311 308 309 308 311 310 311 312 312 314 315 314 313 313 313 313 313 314 314 314

GFSSW_850_thetae_075.txt.gz
Theta_e
308 308 308 307 307 308 308 308 308 308 309 309 309 309 310 310 311 311 312 313 314 314 313 313 314 315 318 319 318 318 314 315 317 318 317 318 317 318 318 318 318 318 321 322 322
307 307 307 307 307 307 308 308 308 308 308 309 309 309 310 310 311 311 314 314 312 313 313 313 314 315 317 318 318 316 312 316 315 315 316 317 318 318 317 317 318 318 318 320 322
307 307 307 307 307 307 308 308 308 308 308 308 309 309 309 310 313 315 313 312 312 312 313 314 314 315 316 318 318 317 315 316 315 316 316 317 317 317 316 315 317 317 318 321 322
307 307 307 307 307 307 307 308 308 308 308 308 308 309 309 311 314 314 314 312 312 311 312 314 314 315 314 315 317 316 317 316 316 316 316 316 317 317 317 317 318 317 318 319 320
307 307 307 307 307 307 307 308 308 308 308 308 308 309 309 311 315 313 313 313 313 312 311 312 314 314 314 314 315 314 314 314 315 315 315 316 315 315 316 317 317 317 318 318 318
307 307 307 307 307 307 308 308 308 309 309 309 309 309 309 313 313 313 311 312 312 312 311 313 314 314 314 314 313 315 314 314 315 315 315 314 314 315 316 316 317 316 317 317 318
307 307 307 308 308 308 308 309 309 309 309 309 309 309 309 312 311 312 311 310 311 312 312 313 314 314 315 314 315 315 314 313 313 314 314 315 310 312 314 315 316 317 316 317 317
308 308 308 308 308 309 309 309 309 309 309 309 309 309 311 311 311 312 313 311 310 312 313 312 313 314 317 315 315 314 313 312 313 313 315 313 308 312 315 314 315 316 316 316 316
313 311 310 309 309 309 310 310 310 310 310 310 309 309 312 310 310 312 314 312 311 311 312 312 313 315 315 311 311 313 310 312 314 313 314 313 311 314 316 316 315 315 315 316 316
321 319 315 311 310 309 309 309 309 309 309 309 309 309 309 310 310 312 314 313 312 312 313 314 315 311 310 309 309 312 313 313 313 314 313 313 311 311 315 315 315 316 316 316 316
319 321 322 321 319 318 316 315 310 309 308 310 310 309 311 310 310 312 313 313 312 313 311 314 310 310 310 310 311 313 314 313 312 314 314 312 311 311 314 314 313 314 315 316 317
318 317 319 320 321 321 320 319 315 314 316 309 310 310 310 310 311 312 313 313 314 311 313 311 310 310 310 312 313 313 314 313 312 313 313 312 311 310 310 312 314 313 314 315 316
316 317 316 317 318 320 320 318 317 317 318 318 312 310 309 310 312 312 313 314 313 312 312 312 313 312 314 315 314 314 313 313 312 312 311 311 309 310 310 313 315 315 315 315 315
316 316 316 315 314 317 318 316 316 317 318 319 317 314 309 309 309 313 312 314 313 313 312 313 313 313 313 313 313 314 312 312 312 312 311 311 310 310 311 311 310 313 315 316 316
315 316 316 316 315 315 316 316 317 319 315 316 315 313 311 309 311 314 313 314 311 312 311 313 312 311 313 313 311 312 313 313 314 313 313 312 311 309 309 310 309 311 314 315 317
311 314 315 316 316 316 316 317 317 318 317 316 312 312 311 311 312 312 313 313 313 313 311 311 312 313 312 311 312 311 313 312 311 309 310 309 310 308 309 311 312 313 315 316 316
309 311 314 316 316 317 317 318 318 319 317 316 314 312 312 311 311 311 311 311 309 312 312 313 312 312 312 311 311 312 309 309 311 311 309 309 309 309 309 310 312 314 314 314 315
306 309 311 315 315 316 317 313 317 317 317 314 314 313 314 312 311 311 311 311 310 310 310 311 311 311 310 311 311 311 310 309 309 314 311 308 311 312 309 313 313 314 314 313 314
302 306 307 312 314 314 314 313 316 316 317 315 314 315 315 313 311 311 310 310 310 309 310 309 310 310 310 310 311 311 312 310 311 299 308 309 309 309 309 310 312 313 314 315 315
300 301 305 307 313 314 313 312 314 314 315 315 316 314 314 313 312 311 311 311 312 310 310 311 313 310 310 311 310 311 310 312 309 308 309 309 309 311 310 310 313 312 314 314 315
299 298 301 306 310 311 313 313 313 314 314 316 317 318 317 313 311 311 312 311 310 311 310 309 311 311 310 310 310 311 311 311 310 310 309 309 309 306 309 311 313 313 314 315 315
301 299 300 305 308 309 310 311 310 313 313 313 313 315 317 316 314 312 313 311 311 311 311 311 311 309 310 309 309 310 310 310 311 310 308 309 312 309 309 312 312 313 314 314 314
300 301 300 306 304 305 306 308 309 308 312 313 313 313 314 317 317 316 314 312 311 309 311 311 310 304 310 310 310 311 311 311 310 308 311 309 313 309 309 309 311 311 313 313 314
300 298 301 303 304 303 305 306 308 308 308 309 311 312 312 312 314 313 315 313 312 310 312 313 312 309 310 314 313 314 313 314 313 308 311 311 311 312 310 308 310 312 312 313 314
299 298 300 300 299 302 303 304 305 306 307 307 308 309 311 312 311 312 312 312 311 310 308 312 313 312 312 312 313 314 313 313 315 315 317 313 312 312 311 310 311 312 313 313 313
298 299 300 299 299 299 300 302 303 304 306 306 307 307 308 310 310 310 311 311 311 308 309 308 306 310 309 310 310 310 309 310 312 313 313 313 314 313 313 313 312 312 312 313 313
297 299 298 298 300 299 298 301 302 302 303 304 304 305 305 306 306 307 307 307 307 305 308 308 308 307 300 306 307 304 307 308 309 310 311 313 312 311 310 310 309 310 310 308 308

GFSSW_850_thetae_078.txt.gz
Theta_e
308 308 307 307 307 307 308 308 308 308 308 309 309 309 310 310 310 311 311 313 315 315 314 313 314 315 318 318 318 318 313 314 317 316 317 316 316 317 318 318 318 318 320 321 322
308 308 307 307 307 307 308 308 308 308 308 309 309 309 309 310 310 311 313 313 313 314 313 313 314 316 317 317 317 314 312 314 314 314 315 316 317 318 317 317 317 317 320 321 321
308 307 307 307 307 307 307 308 308 308 308 308 309 309 309 310 311 312 313 312 312 312 312 314 315 316 316 317 317 315 312 313 314 315 316 316 315 316 315 313 316 317 318 321 323
307 307 307 307 307 307 307 308 307 308 308 308 308 308 309 311 310 315 314 312 311 311 313 314 314 314 313 314 317 315 315 315 315 315 315 315 316 315 315 317 317 317 317 318 320
307 307 307 307 307 307 307 307 307 308 308 308 308 308 309 311 315 313 313 312 311 311 312 313 314 314 311 314 314 314 313 314 315 315 314 315 314 314 315 316 317 317 317 318 319
307 307 307 307 307 307 307 307 308 308 308 308 308 309 309 311 313 313 313 312 312 311 311 312 313 314 314 313 312 314 313 313 314 314 314 313 312 314 314 315 316 316 316 317 318
307 307 307 307 307 307 308 308 308 308 308 309 309 309 309 310 312 312 310 311 312 312 312 313 313 313 314 313 315 314 313 312 312 313 313 314 309 311 313 315 315 316 316 317 318
307 307 307 307 308 308 308 308 308 309 309 309 309 309 310 310 311 312 311 310 311 312 312 313 313 315 315 314 313 312 309 309 310 312 314 311 308 309 315 314 313 315 315 316 316
307 308 308 308 308 308 309 309 309 309 309 309 309 309 311 310 310 311 312 311 310 312 313 312 313 314 314 309 310 309 308 311 311 311 312 311 310 311 315 315 314 314 315 315 315
311 309 310 310 310 309 309 309 309 310 309 309 309 309 309 310 310 312 313 312 312 311 312 314 314 310 307 306 307 310 312 311 311 312 312 312 310 309 315 313 314 314 315 316 316
317 316 315 313 314 314 312 312 309 309 308 309 309 309 309 311 310 312 313 312 312 312 309 312 310 310 310 308 308 309 312 313 312 313 313 311 310 309 313 313 313 314 314 314 314
319 319 320 320 320 320 318 315 312 312 310 308 310 309 310 310 311 312 313 313 312 310 311 309 309 309 309 309 310 311 312 312 311 312 312 311 310 309 309 311 313 313 313 314 314
317 318 317 319 321 320 319 319 316 314 316 316 309 309 310 310 311 311 313 313 311 310 311 309 310 310 311 312 312 312 311 312 311 311 310 310 307 308 309 311 313 314 313 314 315
313 317 316 316 317 319 319 318 317 318 316 317 316 312 310 309 310 312 312 313 312 310 310 312 312 311 312 312 311 312 311 312 312 310 309 309 307 308 309 308 308 313 312 313 314
313 314 315 316 314 314 317 317 317 318 312 314 314 313 309 309 310 313 312 313 311 311 311 311 312 312 312 312 311 311 311 312 312 310 312 310 309 307 307 309 308 309 312 316 316
312 315 316 315 315 315 314 317 317 314 313 315 312 311 310 310 311 312 312 313 312 310 310 310 311 310 310 311 311 310 311 309 307 306 308 308 307 305 308 310 311 311 313 313 315
309 312 314 313 316 316 315 316 318 317 314 315 314 310 310 310 311 310 310 311 310 312 311 312 311 311 311 311 311 310 308 308 309 309 308 307 308 307 308 308 310 310 311 312 313
308 310 312 315 315 316 316 315 316 317 317 312 313 311 312 310 310 310 310 311 309 308 309 311 312 310 310 310 311 309 307 308 307 310 309 308 310 310 309 309 310 313 313 314 315
305 308 308 314 315 315 314 312 316 316 317 313 313 314 313 311 310 310 309 309 309 307 309 310 310 309 309 309 310 311 310 307 308 296 306 308 308 308 308 309 311 312 314 314 315
301 304 307 311 314 315 313 312 314 315 315 314 316 313 314 312 311 310 309 309 310 308 308 308 311 309 310 310 309 309 308 311 308 307 306 308 308 309 311 310 310 310 313 314 314
300 301 304 307 313 312 314 313 313 314 315 315 317 315 312 312 310 310 311 310 309 309 308 309 309 310 309 310 310 310 310 310 309 307 307 306 308 305 309 310 309 311 313 313 313
301 298 302 306 310 309 310 312 312 314 314 314 313 316 317 311 311 311 312 312 311 310 308 309 309 309 310 308 308 309 309 310 310 309 306 308 310 307 308 307 309 311 311 312 312
300 301 302 307 306 306 306 308 309 312 313 313 314 314 314 316 316 315 313 312 309 310 312 311 311 309 311 310 309 310 310 309 308 306 307 308 311 305 307 307 308 309 310 311 313
300 297 300 304 303 303 305 307 309 308 309 311 312 312 312 312 313 315 315 312 311 311 312 311 310 309 311 312 311 313 311 313 310 306 308 310 311 309 308 308 310 311 312 313 313
299 298 299 297 302 303 302 305 307 307 307 308 308 311 312 312 313 312 312 311 310 310 309 310 308 311 311 311 312 313 312 312 313 313 312 313 313 312 311 310 311 312 311 312 312
298 297 299 298 299 301 302 302 304 305 306 306 307 308 309 311 311 311 311 310 311 309 309 307 308 310 308 310 311 311 310 311 311 311 312 311 312 310 310 310 310 310 309 308 308
296 297 298 297 297 299 300 301 302 303 303 305 305 305 306 307 306 306 308 309 308 307 308 305 308 306 304 304 307 305 306 307 308 309 310 311 310 308 307 306 306 307 307 305 306

GFSSW_850_thetae_081.txt.gz
Theta_e
308 308 308 308 308 308 308 308 308 308 308 309 309 309 309 310 310 311 310 311 314 314 314 312 312 313 316 318 318 318 312 314 316 314 316 314 315 315 317 317 318 318 319 320 332
308 308 307 307 307 307 308 308 308 308 308 309 309 309 309 310 310 311 311 313 314 315 314 312 313 315 317 317 317 314 311 313 313 313 314 315 315 316 316 316 317 317 319 321 328
308 308 307 307 307 307 307 308 308 308 308 308 308 309 309 310 311 311 313 313 313 314 312 313 314 316 316 316 316 313 313 312 314 314 315 315 315 315 314 314 316 317 317 321 324
308 307 307 307 307 307 307 307 307 308 308 308 308 308 309 310 309 312 313 312 312 313 312 314 315 314 313 314 316 315 314 313 314 315 315 314 315 314 314 316 316 317 317 318 320
308 307 307 307 307 307 307 307 307 307 307 308 308 308 309 311 314 314 314 312 312 312 313 314 314 313 312 313 314 313 312 313 315 315 314 314 314 313 314 316 316 317 316 317 318
307 307 307 307 307 307 307 307 307 307 308 308 308 308 309 310 313 312 313 312 311 311 312 313 314 313 313 312 313 313 312 312 313 313 313 312 311 313 312 313 315 316 316 317 318
307 307 307 307 307 307 307 307 307 308 308 308 308 308 309 310 312 313 312 312 312 311 311 312 313 313 313 312 313 313 312 311 312 312 312 313 309 310 312 312 314 314 315 316 317
307 307 307 307 307 307 307 307 308 308 308 308 308 308 309 310 311 312 310 311 311 311 311 313 313 314 313 313 312 310 308 308 308 311 312 310 307 308 314 314 313 314 314 315 316
307 307 307 307 307 307 308 308 308 309 309 309 308 309 309 310 311 312 310 310 311 312 312 312 313 314 313 308 307 307 306 309 310 310 312 310 310 309 314 314 314 314 314 314 315
307 307 308 308 308 308 309 309 309 309 309 309 309 309 309 309 310 312 311 310 311 312 312 313 313 308 306 304 306 310 309 309 309 311 311 311 310 309 313 312 313 314 314 314 315
309 309 309 309 309 309 310 311 309 309 308 308 309 309 309 311 311 312 312 311 311 311 309 311 309 309 308 306 306 307 310 311 311 311 312 310 309 308 312 312 312 314 314 314 314
313 314 313 311 313 314 314 311 309 310 308 308 309 309 309 311 311 312 312 312 311 308 309 309 309 308 308 308 309 310 311 311 310 311 312 310 309 307 308 311 313 313 313 313 314
317 315 319 316 319 319 317 314 312 312 314 314 309 309 310 310 310 312 312 312 308 309 309 308 309 307 309 309 309 309 309 310 310 309 308 308 306 305 306 309 312 312 312 312 312
314 317 319 319 319 319 318 318 315 315 314 315 312 310 309 310 310 311 312 312 311 309 308 309 310 309 309 310 309 311 309 309 310 309 308 307 306 306 307 306 307 310 310 313 314
315 315 316 317 316 318 318 317 317 316 309 311 313 311 309 309 310 312 312 313 310 309 310 309 310 310 310 310 309 310 310 310 310 307 310 309 308 306 306 308 308 308 312 313 314
311 313 314 314 314 316 316 316 317 315 311 315 312 310 309 310 310 311 312 312 311 310 309 309 310 310 310 309 310 308 308 306 305 304 307 306 305 304 306 309 309 308 310 312 313
309 311 315 315 314 315 314 315 317 316 312 314 313 309 309 309 310 310 310 310 309 310 310 311 311 310 310 310 310 308 307 307 307 307 307 305 306 305 306 307 307 307 311 313 314
308 310 311 314 315 315 314 315 317 313 315 312 311 309 309 309 310 310 309 311 308 307 308 310 312 310 309 309 310 307 307 307 306 307 307 307 308 308 308 308 310 311 312 313 313
306 304 309 312 313 315 315 314 315 316 314 313 312 312 312 310 309 310 309 309 308 306 308 309 310 309 309 308 310 310 308 305 306 295 306 306 307 307 306 309 309 310 312 312 313
301 303 306 309 312 314 312 312 314 314 315 312 315 313 313 311 310 309 309 308 309 307 307 308 309 309 309 309 309 309 307 310 306 305 305 306 308 307 307 309 308 308 311 311 312
300 302 306 307 312 312 310 311 312 314 315 315 316 313 312 311 310 309 309 309 308 307 308 306 308 310 309 309 309 309 309 307 308 306 306 305 307 304 306 308 307 308 311 311 313
300 298 303 306 311 310 311 312 312 314 314 314 314 315 312 310 310 310 311 310 310 308 308 307 308 309 309 307 306 308 308 307 308 308 305 307 308 305 306 307 310 310 310 312 312
300 300 303 306 310 308 306 310 312 313 313 313 314 313 313 315 315 313 311 311 309 309 309 309 310 308 312 310 309 309 309 308 307 306 306 309 309 306 305 306 308 309 310 311 311
300 298 300 304 303 305 306 308 309 309 312 312 312 310 311 311 311 315 314 311 311 312 311 310 310 310 311 312 310 312 312 312 309 310 309 308 309 307 306 309 309 309 310 311 311
299 297 298 299 303 301 303 306 308 307 307 310 310 311 311 312 310 311 310 311 310 309 310 310 312 311 311 312 312 311 311 312 312 310 309 311 311 309 310 308 309 309 309 310 310
298 296 299 297 299 302 302 303 306 306 307 307 308 309 310 310 309 311 310 311 312 308 310 307 311 310 310 309 310 312 310 310 310 311 311 311 311 309 309 309 309 308 307 306 306
297 297 298 298 297 300 301 301 302 304 304 305 306 307 308 309 307 308 310 310 309 308 308 306 305 305 310 305 308 308 306 308 308 308 308 309 309 307 306 306 306 306 306 305 304